                ,  0.671,  0.819,  0.966,  1.114,  1.262,  1.410,  1.558,  1.705,  1.853,  2.001,  2.149,  2.297,  2.445,  2.592,  2.740,  2.888,  3.036,  3.184,  3.331,  3.479,  3.627,  3.775,  3.923,  4.070,  4.218,  4.366,  4.514,  4.662,  4.809,  4.957,  5.105,  5.253,  5.401,  5.549,  5.696,  5.844,  5.992,  6.140,  6.288,  6.435,  6.583,  6.731,  6.879,  7.027,  7.174,  7.322,  7.470,  7.618,  7.766,  7.914,  8.061,  8.209,  8.357,  8.505,  8.653,  8.800,  8.948,  9.096,  9.244,  9.392,  9.539,  9.687,  9.835
2005/10/04 00:00,  999.0,   -0.5,   -2.1,   -1.1,   -0.7,  999.0,  999.0,  999.0,  999.0,   -5.7,    0.1,   -2.7,   -6.2,  999.0,   -0.6,    5.8,  999.0,    1.4,    1.0,  999.0,  999.0,  999.0,    1.7,    0.7,   -3.6,   -5.7,  999.0,   -7.5,  999.0,  999.0,  999.0,  999.0,  999.0,  999.0,  999.0,   -0.1,  999.0,  999.0,   27.5,  -55.0,  999.0,  -27.4,  -27.4,  -55.0,  999.0,    0.1,  999.0,  -55.2,  999.0,  999.0,  999.0,  -55.7,  999.0,  999.0,  999.0,  999.0,  999.0,  999.0,  999.0,  999.0,  999.0,  999.0,  999.0
2005/10/04 00:10,  999.0,  999.0,   -1.3,   -1.3,    1.8,  999.0,    6.1,    3.5,    5.2,  999.0,    6.6,    7.1,    8.5,    9.5,    9.5,    9.6,    8.3,    8.3,    8.9,    9.9,   10.0,    8.4,    8.2,    8.2,    7.6,  999.0,  999.0,   10.0,  999.0,  999.0,  999.0,  999.0,  999.0,  999.0,   54.9,   54.8,   55.0,   55.0,   54.9,   54.9,   54.9,   54.8,   54.9,   55.2,   55.1,   55.1,   55.0,   55.2,   55.5,  999.0,   55.1,  999.0,  999.0,  999.0,  999.0,  999.0,  999.0,  999.0,  999.0,  999.0,  999.0,  999.0,  999.0
2005/10/04 00:20,  999.0,   -0.7,   -0.9,   -0.8,  999.0,    2.9,  999.0,    5.4,    5.1,    6.2,    6.4,    7.2,    8.6,    8.7,    9.8,    8.3,    7.6,    7.9,    9.1,    9.3,    9.4,    9.0,  999.0,  999.0,  999.0,  999.0,  999.0,   10.7,   11.9,   13.2,  999.0,  999.0,  999.0,  999.0,  999.0,   55.1,   55.0,   55.1,   55.1,   55.1,   55.2,   55.1,   55.2,   55.2,   55.3,   55.2,   55.5,   55.7,  999.0,  999.0,  999.0,   55.3,  999.0,  999.0,  999.0,  999.0,  999.0,  999.0,  999.0,  999.0,  999.0,  999.0,  999.0
2005/10/04 00:30,  999.0,    1.6,    1.6,    0.4,    1.3,    4.7,  999.0,    0.3,    4.9,    6.7,    6.8,    7.9,    8.9,    9.8,    9.6,    8.8,    8.2,    7.6,  999.0,    8.3,    9.1,  999.0,  999.0,   20.0,   19.4,  999.0,   29.9,   29.9,   30.5,   33.6,  999.0,  999.0,   55.0,   54.9,   54.9,   55.0,   55.0,   54.9,   55.0,   55.1,   55.0,   55.0,   55.1,   55.1,   55.0,   55.0,   55.0,   55.1,   55.1,   55.1,   55.0,   55.2,   55.3,   55.3,   55.0,   55.2,  999.0,  999.0,  999.0,  999.0,  999.0,  999.0,  999.0
2005/10/04 00:40,  999.0,   -2.7,   -1.5,   -0.4,    1.8,  999.0,  999.0,    2.1,  999.0,    5.4,    7.5,    8.8,    9.0,    9.4,  999.0,    8.2,    8.7,    8.0,    8.3,  999.0,    9.3,    8.9,    8.3,    8.2,    8.8,    7.9,    9.5,   11.8,  999.0,  999.0,  999.0,  999.0,  999.0,  999.0,  999.0,   55.1,   55.0,   55.0,   55.1,   55.1,   55.1,   55.1,   55.1,   55.1,   55.1,   55.1,   55.3,   55.3,   55.4,   55.1,  999.0,   55.4,  999.0,  999.0,  999.0,  999.0,  999.0,  999.0,  999.0,  999.0,  999.0,  999.0,  999.0
2005/10/04 00:50,  999.0,   -1.5,   -2.0,   -0.8,    1.9,  999.0,  999.0,  999.0,  999.0,    4.3,  999.0,    7.6,    8.1,    8.8,    9.2,    8.6,    7.8,    7.8,    8.2,    8.0,    8.8,    8.4,    8.7,    8.9,    8.4,    7.9,    9.0,   10.4,   11.9,  999.0,   13.2,  999.0,  999.0,  999.0,  999.0,  999.0,   55.0,   55.1,   55.1,   55.1,   55.1,   55.1,   55.0,   55.1,   55.2,   55.2,   55.3,   55.1,   55.5,  999.0,   55.0,  999.0,  999.0,  999.0,  999.0,  999.0,  999.0,  999.0,  999.0,  999.0,  999.0,  999.0,  999.0
2005/10/04 01:00,  999.0,  999.0,  999.0,  999.0,  999.0,    2.5,  999.0,  999.0,  999.0,  999.0,  999.0,    7.9,    8.3,    9.3,  999.0,    9.2,    8.8,    8.1,    8.0,    7.5,    7.9,    7.8,    7.2,    8.4,    8.5,    8.5,    9.3,   10.1,   11.8,  999.0,  999.0,  999.0,  999.0,  999.0,  999.0,  999.0,  999.0,   55.1,  999.0,   55.1,   55.0,   54.9,   55.1,   55.0,  999.0,   55.1,   55.1,   55.0,  999.0,   55.1,   54.9,   55.5,   55.0,   55.0,  999.0,  999.0,  999.0,  999.0,  999.0,  999.0,  999.0,  999.0,  999.0
2005/10/04 01:10,  999.0,   -1.3,  999.0,   -0.9,    0.5,    1.6,  999.0,  999.0,  999.0,    7.7,    8.9,    8.9,    9.8,    9.6,    9.3,    9.6,    9.1,    8.8,    8.7,    8.5,    8.7,    8.4,    8.1,    8.5,    9.0,    9.0,   10.2,   10.0,  999.0,  999.0,  999.0,  999.0,  999.0,  999.0,   54.9,   55.0,   55.0,   54.9,   55.1,   55.0,   55.1,   55.0,   55.1,   55.1,   55.1,   55.3,   55.2,   55.1,   55.3,   55.3,   55.4,  999.0,   55.2,   55.3,  999.0,  999.0,  999.0,   55.8,  999.0,  999.0,  999.0,  999.0,  999.0
2005/10/04 01:20,  999.0,   -1.3,   -1.6,   -1.5,    0.3,    1.2,  999.0,  999.0,  999.0,  999.0,    8.1,    8.5,    9.4,    9.7,  999.0,  999.0,    9.1,  999.0,    8.8,    8.7,  999.0,    7.9,    8.3,    9.1,    9.6,   10.1,   11.2,  999.0,  999.0,  999.0,  999.0,  999.0,  999.0,  999.0,   55.0,   55.0,  999.0,   55.0,   55.2,   55.1,   55.0,   55.0,   55.2,   55.1,   55.0,   55.5,   55.4,   55.2,   55.1,  999.0,  999.0,   55.2,  999.0,  999.0,  999.0,  999.0,  999.0,  999.0,  999.0,  999.0,  999.0,  999.0,  999.0
2005/10/04 01:30,  999.0,   -1.7,   -1.9,   -2.0,   -0.1,    1.6,  999.0,    6.2,  999.0,    7.8,    8.0,    8.3,    8.7,    9.7,    9.6,  999.0,    8.6,    8.7,  999.0,    8.5,  999.0,    8.1,    7.4,    8.8,    9.6,    9.7,   11.1,   12.2,  999.0,  999.0,  999.0,  999.0,  999.0,  999.0,   55.0,   55.0,   54.9,   55.0,   55.0,   55.0,   55.1,   55.0,   55.1,   55.0,   55.1,   55.1,   55.1,   55.2,  999.0,   55.4,   55.1,   55.6,  999.0,  999.0,  999.0,  999.0,  999.0,  999.0,  999.0,  999.0,  999.0,  999.0,  999.0
2005/10/04 01:40,  999.0,  999.0,   -1.8,   -1.0,    0.7,    2.0,  999.0,    4.2,    4.6,    7.6,    6.6,    8.3,    9.5,    9.4,  999.0,  999.0,    9.2,    9.8,    9.4,    9.1,    8.2,    8.4,    8.3,    9.3,   10.5,   11.2,   11.5,   12.4,  999.0,  999.0,  999.0,  999.0,  999.0,   55.1,   55.1,   55.0,   55.0,   55.1,   55.1,   55.1,   55.1,   55.0,   55.1,   55.1,   55.1,   55.1,   55.1,   55.1,   55.2,   55.2,   55.2,   55.2,   55.2,   55.2,   55.2,   55.2,   55.4,   55.3,  999.0,  999.0,   54.5,  999.0,  999.0
2005/10/04 01:50,  999.0,   -2.0,  999.0,   -0.5,    1.5,    3.5,    5.3,    7.2,    5.1,    7.0,    7.3,    8.2,    8.5,   10.4,  999.0,  999.0,    9.0,    9.0,  999.0,    8.7,    8.0,    7.7,    8.8,   10.1,   10.8,   11.1,   11.9,  999.0,  999.0,  999.0,  999.0,  999.0,   55.1,   55.0,   55.0,   55.0,   55.0,   55.0,   55.0,   55.0,   55.0,   55.1,   55.2,   55.1,   55.1,   55.0,   55.0,   55.2,  999.0,   55.2,   55.4,  999.0,  999.0,  999.0,  999.0,  999.0,  999.0,  999.0,  999.0,  999.0,  999.0,  999.0,  999.0
2005/10/04 02:00,  999.0,   -2.3,   -0.7,   -0.9,    1.0,    3.6,    5.7,    7.5,    7.8,    8.1,    8.1,    8.2,    9.2,    8.8,  999.0,  999.0,    9.2,  999.0,    9.1,    9.1,    7.7,   19.8,   20.4,   21.7,   11.3,   22.7,   23.1,  999.0,  999.0,  999.0,  999.0,  999.0,  999.0,  999.0,   54.9,   55.0,   55.0,   55.0,   54.9,   55.0,   55.0,   55.1,   55.0,   55.2,   55.1,   55.1,   55.1,   55.1,   36.7,   55.3,   55.0,   55.2,   55.2,   55.0,   55.2,  999.0,   55.3,  999.0,  999.0,  999.0,  999.0,  999.0,  999.0
2005/10/04 02:10,  999.0,  999.0,   -0.8,   -0.4,    2.5,    4.2,  999.0,    7.3,    7.2,    7.2,    7.5,    8.5,    9.6,  999.0,  999.0,  999.0,  999.0,  999.0,    8.3,    7.4,  999.0,  999.0,  999.0,  999.0,  999.0,  999.0,  999.0,  999.0,  999.0,  999.0,  999.0,  999.0,  999.0,   55.0,   55.1,   55.1,   55.0,   55.0,   55.0,   55.1,   55.1,   55.2,   55.1,   55.2,   55.0,   54.9,   55.3,   55.4,   55.2,   55.4,   55.2,  999.0,   55.6,   55.0,  999.0,  999.0,  999.0,  999.0,  999.0,  999.0,  999.0,  999.0,  999.0
2005/10/04 02:20,  999.0,   -2.0,   -1.5,   -0.5,    1.8,    3.6,    6.6,    7.4,    7.1,    7.3,    8.1,    8.7,    9.2,    5.7,  999.0,  999.0,  999.0,  999.0,    8.3,    8.2,    8.3,    8.5,    9.8,   10.9,   10.9,   11.0,  999.0,  999.0,  999.0,  999.0,  999.0,  999.0,   55.0,   54.9,   54.9,   55.0,   55.0,   55.0,   55.0,   55.0,   55.1,   55.2,   55.0,   55.0,   55.0,   55.1,   55.2,   55.4,   55.4,   55.2,   55.2,  999.0,  999.0,  999.0,  999.0,  999.0,  999.0,  999.0,  999.0,  999.0,  999.0,  999.0,  999.0
2005/10/04 02:30,  999.0,   -2.9,   -1.8,   -1.8,    1.4,    3.7,    5.7,  999.0,    7.6,    6.8,    8.0,    9.2,    8.3,    8.1,    8.7,  999.0,  999.0,    8.3,    8.2,    8.3,    8.1,    8.4,   10.3,   11.0,   10.8,   11.4,  999.0,  999.0,  999.0,  999.0,  999.0,  999.0,  999.0,   54.9,   54.9,   55.0,   55.0,   54.9,   55.0,   55.0,   55.0,   55.0,   55.1,   55.1,   55.2,   55.0,   55.1,   55.3,   55.4,   55.3,   55.4,  999.0,  999.0,   55.4,  999.0,  999.0,  999.0,  999.0,  999.0,  999.0,  999.0,  999.0,  999.0
2005/10/04 02:40,  999.0,   -2.8,   -1.9,   -0.7,    0.9,    4.9,    6.2,    7.0,    7.3,    8.2,    8.3,    8.6,    8.4,    9.1,    8.6,    8.9,    8.6,    7.6,    7.1,    8.2,    8.1,    8.9,   10.7,   10.7,   10.9,   11.3,  999.0,  999.0,  999.0,  999.0,  999.0,  999.0,   54.9,  999.0,   55.1,   55.0,   55.0,   55.0,   55.0,   55.1,   55.0,   55.1,   55.1,   55.1,   55.1,   55.2,   55.2,   55.0,   55.0,   55.2,   55.1,   55.5,   55.0,  999.0,   54.9,  999.0,  999.0,  999.0,  999.0,  999.0,  999.0,  999.0,  999.0
2005/10/04 02:50,  999.0,   -1.8,   -1.0,   -1.7,    1.2,    3.6,    5.3,    7.1,    7.3,    9.3,    8.0,   10.2,    9.4,    9.1,  999.0,  999.0,  999.0,    6.7,  999.0,    7.8,  999.0,  999.0,   15.6,   20.9,   17.4,   21.3,  999.0,  999.0,  999.0,  999.0,  999.0,  999.0,  999.0,  999.0,   55.1,   55.0,   55.1,   55.1,   55.2,   55.1,   55.1,   55.0,   55.2,   55.2,   55.3,   55.2,   55.0,   55.2,   55.7,  999.0,  999.0,   55.2,   55.5,   55.9,  999.0,  999.0,  999.0,  999.0,  999.0,  999.0,  999.0,  999.0,  999.0
2005/10/04 03:00,  999.0,   -1.5,  999.0,   -1.3,    0.5,    3.9,  999.0,    6.6,    7.5,    8.3,    7.9,  999.0,    8.7,  999.0,    7.4,  999.0,  999.0,  999.0,    7.1,    8.1,  999.0,    8.8,    9.4,    9.7,   10.4,  999.0,  999.0,  999.0,  999.0,  999.0,  999.0,  999.0,  999.0,   55.0,   54.9,   54.9,   55.0,   54.9,   55.0,   55.0,   55.0,   55.0,   55.0,   55.1,   55.0,   55.1,   55.1,   55.1,   55.1,   55.2,   55.0,   55.0,   55.2,   54.7,   55.5,   55.4,  999.0,  999.0,  999.0,  999.0,  999.0,  999.0,  999.0
2005/10/04 03:10,  999.0,   -1.4,   -0.9,  999.0,    1.6,    4.8,    5.7,    7.8,    7.6,    7.8,    8.7,    9.3,    8.4,    8.2,  999.0,    7.0,    6.3,    7.7,    8.0,    9.2,    8.4,   14.7,    9.7,   10.2,   14.8,  999.0,  999.0,  999.0,  999.0,  999.0,  999.0,   35.3,  999.0,  999.0,  999.0,  999.0,  999.0,  999.0,   55.1,   55.1,   55.0,   55.2,   55.1,   55.1,   55.2,   55.1,   55.2,   55.1,   55.3,   54.8,   55.3,   55.1,   55.1,  999.0,  999.0,  999.0,  999.0,  999.0,  999.0,  999.0,  999.0,  999.0,  999.0
2005/10/04 03:20,  999.0,   -1.9,   -0.4,   -1.3,    1.6,    3.0,    5.6,    8.1,    8.6,  999.0,    7.4,    8.3,  999.0,    8.1,    7.3,    5.9,  999.0,    7.9,    8.5,  999.0,  999.0,  999.0,  999.0,   21.9,   25.7,   33.5,   34.1,   34.6,  999.0,  999.0,  999.0,  999.0,  999.0,  999.0,  999.0,  999.0,  999.0,  999.0,  999.0,   55.1,   55.1,   55.1,   55.1,   55.2,   55.2,   55.1,   55.1,   55.1,   55.3,   55.6,   55.3,  999.0,  999.0,   55.2,  999.0,  999.0,  999.0,  999.0,  999.0,  999.0,  999.0,  999.0,  999.0
2005/10/04 03:30,  999.0,   -0.7,   -0.2,   -0.9,    1.6,    3.7,    6.8,    8.4,    8.8,    9.4,    8.0,    8.3,    8.3,    8.1,  999.0,  999.0,  999.0,  999.0,    9.4,  999.0,    9.5,    9.1,    9.2,    9.9,  999.0,  999.0,  999.0,   23.8,  999.0,  999.0,  999.0,  999.0,  999.0,  999.0,  999.0,   55.0,   55.0,   55.0,   55.0,   55.0,   55.1,   55.0,   55.0,   55.0,   55.2,   55.1,   55.1,   55.1,   55.2,   55.1,   55.3,  999.0,  999.0,  999.0,  999.0,  999.0,  999.0,  999.0,  999.0,  999.0,  999.0,  999.0,  999.0
2005/10/04 03:40,  999.0,   -2.1,   -1.4,   -1.4,    2.0,    4.4,    8.2,    8.7,    9.2,    8.9,    7.7,    8.6,    8.9,    8.6,  999.0,  999.0,  999.0,  999.0,  999.0,    9.9,    9.1,    9.1,   10.2,   10.6,   11.3,   13.1,   13.4,   13.7,  999.0,  999.0,  999.0,  999.0,  999.0,  999.0,  999.0,  999.0,   54.7,   54.8,   54.9,   55.0,   54.9,   54.9,   55.0,   54.9,   55.2,   55.1,   55.2,   55.2,   54.6,   55.2,   55.2,  999.0,  999.0,   55.3,  999.0,  999.0,  999.0,  999.0,  999.0,  999.0,  999.0,  999.0,  999.0
2005/10/04 03:50,  999.0,   -1.8,   -0.8,   -0.4,    1.2,    4.9,    7.4,    8.6,    9.2,    9.1,    8.5,    8.7,  999.0,  999.0,  999.0,  999.0,  999.0,  999.0,  999.0,  999.0,  999.0,  999.0,  999.0,   29.3,  999.0,  999.0,  999.0,  999.0,  999.0,  999.0,  999.0,  999.0,  999.0,   55.0,   54.9,   55.0,   55.1,   55.0,   55.1,   55.1,   55.1,   55.1,   55.1,   55.1,   55.1,   55.1,   55.2,   55.3,   55.2,   55.2,   55.0,   55.3,   55.3,   55.2,   55.4,  999.0,  999.0,  999.0,  999.0,  999.0,  999.0,  999.0,  999.0
2005/10/04 04:00,  999.0,   -1.6,   -0.8,    0.3,    1.9,    4.4,    7.8,    8.8,    9.0,    9.0,    9.0,    9.4,  999.0,    9.2,  999.0,  999.0,  999.0,    9.5,  999.0,  999.0,    9.4,   10.1,  999.0,  999.0,   11.8,  999.0,  999.0,  999.0,  999.0,  999.0,  999.0,  999.0,  999.0,  999.0,   55.0,   55.0,   55.1,   55.0,   55.0,   55.1,   55.2,   55.0,   55.0,  999.0,   55.2,   55.0,   55.3,   55.3,   55.0,   55.0,  999.0,   55.4,   55.0,  999.0,  999.0,  999.0,  999.0,  999.0,  999.0,   55.4,  999.0,  999.0,  999.0
2005/10/04 04:10,  999.0,   -1.5,   -1.2,  999.0,    1.1,    5.6,    6.9,    8.1,    9.3,    9.6,    8.7,    8.8,  999.0,    9.2,  999.0,  999.0,  999.0,  999.0,  999.0,    9.9,    9.7,    9.7,   10.1,   11.3,   12.5,  999.0,  999.0,  999.0,  999.0,  999.0,  999.0,  999.0,  999.0,   54.9,   55.0,   55.1,   55.0,   55.0,   54.9,   55.0,   55.0,   55.0,   55.0,   55.0,   55.2,   55.1,   55.2,   55.1,   55.0,   55.3,   55.1,   55.2,   55.3,   55.1,   55.3,  999.0,   55.6,   55.2,  999.0,  999.0,  999.0,  999.0,  999.0
2005/10/04 04:20,  999.0,  999.0,   -0.6,   -1.5,    1.7,    5.8,    7.9,    9.5,    9.1,    8.7,    8.8,    9.0,   10.0,  999.0,    8.9,  999.0,  999.0,  999.0,   10.1,    9.4,   10.5,  999.0,   11.4,  999.0,  999.0,  999.0,  999.0,  999.0,  999.0,  999.0,  999.0,  999.0,  999.0,   55.0,   55.0,   55.0,   55.1,   55.1,   55.1,   55.1,   55.1,   55.1,   55.2,   55.3,   55.0,   55.2,   55.2,   55.3,   55.2,  999.0,   55.2,   55.5,  999.0,  999.0,  999.0,  999.0,  999.0,  999.0,  999.0,  999.0,  999.0,  999.0,  999.0
2005/10/04 04:30,  999.0,   -0.3,   -0.1,    0.3,    2.4,    5.4,    7.7,    8.9,    9.1,    8.7,    8.8,    9.2,    9.5,    9.0,    9.0,  999.0,  999.0,    9.2,   10.3,    9.9,   10.2,   11.1,   11.2,   11.7,  999.0,  999.0,  999.0,  999.0,  999.0,  999.0,  999.0,  999.0,  999.0,  999.0,   55.0,   55.0,   55.0,   55.0,   55.0,   55.0,   55.0,   55.2,   55.1,   55.0,   55.2,   55.1,   55.1,   55.2,   55.1,   55.4,   55.3,   55.2,   55.2,   55.0,   55.8,  999.0,  999.0,  999.0,  999.0,  999.0,  999.0,  999.0,  999.0
2005/10/04 04:40,  999.0,   -0.8,   -0.6,  999.0,    3.3,    7.2,    9.7,    9.3,    8.6,    8.4,    8.6,    9.3,    9.1,  999.0,  999.0,  999.0,  999.0,   10.6,   10.7,   10.2,  999.0,  999.0,  999.0,  999.0,  999.0,  999.0,  999.0,  999.0,  999.0,   54.9,   54.9,   54.9,   55.0,   55.1,   55.0,   55.0,   55.1,   55.0,   55.0,   55.0,   55.0,   55.1,   55.2,   55.1,   55.1,   55.2,   55.2,   55.1,   55.0,   55.1,   55.2,   54.8,   55.0,   55.3,  999.0,  999.0,  999.0,  999.0,  999.0,  999.0,  999.0,  999.0,  999.0
2005/10/04 04:50,  999.0,   -0.6,   -0.4,  999.0,    4.3,    7.4,    9.1,    8.6,    8.7,    9.1,    8.9,    8.8,    8.4,    8.6,    8.7,    8.3,    8.0,    9.8,   10.1,   10.4,   11.1,  999.0,  999.0,  999.0,  999.0,  999.0,   55.0,   55.0,   55.0,   55.0,   55.0,   55.0,   55.0,   55.0,   55.1,   55.0,   55.0,   55.2,   55.1,   55.0,   55.0,   55.2,   55.1,   55.1,   55.1,   55.1,   55.1,   55.4,   55.4,   55.1,   55.3,   55.2,   55.4,  999.0,   55.0,  999.0,  999.0,  999.0,  999.0,  999.0,  999.0,  999.0,  999.0
2005/10/04 05:00,  999.0,   -1.3,   -1.3,    0.8,    4.3,    7.7,  999.0,    9.3,    9.4,    8.9,    8.9,    8.6,    8.9,    8.8,    9.1,    9.2,    9.2,   10.0,    9.8,   10.6,   11.8,  999.0,  999.0,  999.0,  999.0,  999.0,  999.0,   23.7,   17.9,  999.0,  999.0,   54.8,   54.8,   55.0,   54.9,   54.9,   55.0,   55.0,   55.0,   55.1,   55.0,   55.1,   55.0,   49.6,   41.3,   43.9,   49.6,   49.5,   55.1,   55.1,   55.1,  999.0,   55.3,   55.0,  999.0,  999.0,  999.0,  999.0,  999.0,  999.0,  999.0,  999.0,  999.0
2005/10/04 05:10,  999.0,   -1.5,   -0.9,    1.0,    4.6,    8.3,  999.0,    8.3,    9.5,    9.5,    9.1,    9.0,    9.3,   10.1,    9.6,    9.2,    9.8,   10.5,   10.3,  999.0,   12.1,  999.0,  999.0,  999.0,  999.0,  999.0,  999.0,  999.0,  999.0,  999.0,  999.0,  999.0,  999.0,  999.0,  999.0,  999.0,   55.0,   55.0,   54.9,   55.1,   54.9,   55.0,   55.0,   55.0,   55.0,   55.1,   55.1,   55.2,   55.2,   55.0,   55.0,   55.2,   55.3,   55.3,  999.0,  999.0,  999.0,  999.0,  999.0,  999.0,  999.0,  999.0,  999.0
2005/10/04 05:20,  999.0,   -1.8,   -0.9,    0.8,    4.8,    7.8,    6.7,    8.9,    8.1,    8.3,    9.3,    9.7,    9.8,    9.6,    9.4,    9.4,   10.2,    9.7,   10.5,  999.0,  999.0,  999.0,  999.0,  999.0,  999.0,  999.0,   55.0,   55.2,   55.0,   55.0,   55.0,   55.0,   55.0,   55.0,   55.1,   55.1,   55.1,   55.1,   55.0,   55.1,   55.1,   55.0,   55.2,   55.1,   55.1,   55.1,   55.1,   55.2,   55.2,   55.2,   55.3,   55.2,   55.6,   55.3,  999.0,  999.0,  999.0,  999.0,  999.0,  999.0,  999.0,  999.0,  999.0
2005/10/04 05:30,  999.0,  999.0,    0.8,    0.7,    2.5,    7.0,    8.0,    7.1,    7.5,    8.0,    9.0,    9.6,    9.9,    9.9,   10.1,   10.5,  999.0,   10.3,  999.0,   11.5,  999.0,  999.0,  999.0,  999.0,  999.0,  999.0,  999.0,  999.0,  999.0,  999.0,  999.0,  999.0,   55.0,   55.0,   55.0,   55.0,   55.1,   55.1,   55.0,   55.0,   55.0,   55.0,   55.1,   55.1,   55.0,   55.1,   55.2,   55.1,  999.0,   55.2,   55.2,   54.8,   55.1,   55.4,  999.0,  999.0,  999.0,  999.0,  999.0,  999.0,  999.0,  999.0,  999.0
2005/10/04 05:40,  999.0,   -1.2,    0.8,    2.2,    6.0,    7.3,    7.9,    6.4,    6.8,    7.7,    9.3,    9.6,   10.0,   10.0,   10.1,   10.4,  999.0,   10.3,   10.9,   11.8,   12.9,   13.3,   12.2,  999.0,   12.9,   13.4,  999.0,  999.0,  999.0,  999.0,  999.0,  999.0,  999.0,  999.0,  999.0,  999.0,   55.0,   55.1,   55.0,   55.0,   55.0,   55.2,   55.0,   55.1,   55.2,   55.2,   55.1,   55.1,   55.1,   55.1,   55.3,   55.3,   55.2,   55.1,   55.3,   55.2,   55.1,   55.1,   55.1,   55.1,  999.0,  999.0,  999.0
2005/10/04 05:50,  999.0,   -1.0,    0.8,    1.8,    7.0,    8.4,    8.2,  999.0,    6.3,    7.1,    8.7,    9.4,    9.5,   10.6,   10.3,  999.0,  999.0,   10.6,   11.1,   12.0,  999.0,  999.0,   12.3,   12.4,   12.8,   12.8,   12.8,   12.2,  999.0,  999.0,  999.0,  999.0,  999.0,  999.0,  999.0,  999.0,   55.1,   55.0,   55.1,   55.1,   55.1,   55.2,   55.1,   55.3,   55.1,   55.3,   55.1,   55.3,   55.4,   55.2,   55.3,   55.2,  999.0,  999.0,  999.0,  999.0,  999.0,  999.0,  999.0,  999.0,  999.0,  999.0,  999.0
2005/10/04 06:00,  999.0,   -1.5,    0.5,    3.0,    6.3,    8.7,    8.6,    6.9,    7.0,    7.9,    8.7,    9.2,   10.3,   10.8,   11.0,   11.5,   10.5,   10.8,   11.6,  999.0,  999.0,   12.3,  999.0,   12.4,   12.6,  999.0,  999.0,  999.0,  999.0,  999.0,  999.0,  999.0,  999.0,  999.0,   55.0,   55.0,   55.0,   54.9,   55.0,   55.0,   55.0,   55.0,   55.0,   55.0,   55.0,   55.0,   55.1,   55.1,   55.0,   55.1,   55.1,   55.3,   55.6,  999.0,   55.3,  999.0,  999.0,  999.0,  999.0,  999.0,  999.0,  999.0,  999.0
2005/10/04 06:10,  999.0,  999.0,    1.1,    3.9,    5.7,    7.8,    8.2,    7.6,    7.0,    7.9,    8.4,    9.1,    9.7,   10.6,   10.7,  999.0,   10.6,   11.5,   12.3,  999.0,  999.0,   12.7,   12.7,   12.6,   13.0,   13.2,  999.0,  999.0,  999.0,  999.0,  999.0,  999.0,  999.0,  999.0,  999.0,  999.0,  999.0,   55.0,   55.0,   55.2,   55.1,   55.0,   55.0,   55.1,   55.0,   51.0,   55.1,   55.1,   55.5,   55.1,   55.3,   55.3,   55.1,   55.0,   55.5,  999.0,   55.1,  999.0,  999.0,  999.0,  999.0,  999.0,  999.0
2005/10/04 06:20,  999.0,   -1.7,    0.4,    3.8,    6.3,    7.9,    8.0,    7.4,    7.9,    8.2,    9.3,    9.8,   10.3,   10.7,   10.2,   10.3,   10.4,   11.0,   12.4,   11.9,   11.8,   12.0,   12.1,   12.0,   12.3,   12.5,   12.7,   12.3,  999.0,  999.0,  999.0,  999.0,  999.0,  999.0,  999.0,  999.0,  999.0,   55.1,   55.1,   55.1,   55.2,   55.1,   55.0,   55.2,   55.3,   55.1,   55.2,   55.2,   54.9,   55.3,   55.6,  999.0,   55.2,   54.7,  999.0,  999.0,  999.0,  999.0,  999.0,  999.0,  999.0,  999.0,  999.0
2005/10/04 06:30,  999.0,   -0.9,    0.6,    3.8,    5.7,    7.2,    7.7,    6.6,    8.8,    9.1,    9.4,    9.4,   10.7,   10.4,   10.8,   10.3,   10.6,   11.9,   13.1,  999.0,   11.7,   11.9,   12.0,   11.6,   11.8,   12.3,  999.0,  999.0,  999.0,  999.0,  999.0,  999.0,  999.0,  999.0,  999.0,  999.0,  999.0,   55.0,   55.0,   54.9,   55.0,   55.0,   55.0,   55.0,   55.0,   55.1,   55.2,   55.3,   55.2,   54.7,  999.0,   55.0,   55.2,   55.5,   55.3,   55.2,  999.0,   55.1,   55.3,  999.0,  999.0,  999.0,  999.0
2005/10/04 06:40,  999.0,   -0.3,    0.8,    3.6,    5.7,    7.5,    7.8,    7.3,    8.6,    9.3,    9.9,    9.6,    9.8,   10.3,   10.6,   10.5,   11.1,   11.9,   13.1,  999.0,  999.0,   11.8,  999.0,   11.5,   11.8,   11.6,  999.0,  999.0,  999.0,  999.0,  999.0,  999.0,  999.0,  999.0,  999.0,  999.0,   54.8,   55.0,   55.1,   55.0,   55.0,   55.2,   55.1,   55.1,   55.1,   55.0,   55.2,   55.2,   55.1,   55.2,   55.2,   55.2,   55.3,   55.3,   55.3,   55.5,   55.4,  999.0,  999.0,  999.0,  999.0,  999.0,   55.6
2005/10/04 06:50,  999.0,  999.0,    0.9,    2.9,    6.1,    7.3,    7.3,    8.8,    9.7,    9.8,    9.1,    9.2,    9.6,   10.2,   11.4,   11.3,   11.6,   12.6,   13.1,   12.9,  999.0,   12.1,   12.5,   12.2,   11.8,   12.7,  999.0,  999.0,  999.0,  999.0,  999.0,  999.0,  999.0,  999.0,  999.0,   55.0,   55.0,   55.1,   55.1,   55.1,   55.1,   55.1,   55.1,   55.1,   55.1,   55.2,   55.3,   55.1,   55.2,   55.1,   55.5,   55.0,   55.4,  999.0,  999.0,  999.0,  999.0,  999.0,  999.0,  999.0,  999.0,  999.0,  999.0
2005/10/04 07:00,  999.0,  999.0,    0.9,    3.2,    6.4,    7.2,    7.3,    9.0,   10.2,    9.1,    9.9,   10.2,   10.1,   10.2,   10.2,   10.0,  999.0,   11.6,   12.5,   12.8,  999.0,   11.9,   12.4,  999.0,   11.2,  999.0,  999.0,  999.0,  999.0,  999.0,  999.0,  999.0,  999.0,   54.9,   55.0,   54.9,   52.3,   48.6,   48.9,   48.9,   54.7,   54.9,   55.0,   55.0,   54.8,   55.1,   55.0,   54.9,   55.4,   55.2,   55.2,   54.8,   54.8,  999.0,  999.0,  999.0,  999.0,  999.0,  999.0,  999.0,  999.0,  999.0,  999.0
2005/10/04 07:10,  999.0,  999.0,    0.6,    4.3,    6.2,    7.1,    6.9,    9.0,    9.7,   10.2,   10.2,   10.5,   10.9,   10.9,   11.1,   10.9,   11.7,   12.3,   12.6,   12.8,   12.6,   11.8,   12.4,   12.3,   11.8,   12.1,  999.0,  999.0,  999.0,  999.0,   14.6,   15.4,   16.4,   16.0,   15.9,   16.0,   17.2,   17.4,   17.7,   18.0,   16.9,   16.3,  999.0,  999.0,  999.0,  999.0,  999.0,  999.0,  999.0,  999.0,  999.0,  999.0,  999.0,  999.0,  999.0,  999.0,  999.0,  999.0,  999.0,  999.0,  999.0,  999.0,  999.0
2005/10/04 07:20,  999.0,  999.0,   -0.0,    4.2,    6.1,    6.8,    7.5,    8.3,    9.7,   10.7,   10.6,   11.2,   11.3,   10.8,  999.0,  999.0,   12.7,   13.5,   13.7,   12.9,   12.7,   11.8,   12.1,   12.2,   11.7,   11.9,   12.1,  999.0,  999.0,  999.0,   13.6,   14.2,   15.8,   16.1,   16.7,   17.3,   17.2,   17.8,   17.2,  999.0,  999.0,   15.4,  999.0,  999.0,  999.0,  999.0,  999.0,  999.0,  999.0,  999.0,  999.0,  999.0,  999.0,  999.0,  999.0,  999.0,  999.0,  999.0,  999.0,  999.0,  999.0,  999.0,  999.0
2005/10/04 07:30,  999.0,   -1.2,    0.2,    2.8,    5.6,    7.0,  999.0,    7.7,    9.7,   10.3,   11.3,   11.8,   11.1,   11.6,  999.0,   12.4,   13.4,   13.5,  999.0,   13.1,  999.0,   11.9,   11.8,  999.0,  999.0,  999.0,  999.0,  999.0,  999.0,  999.0,   55.0,   55.0,   55.0,   55.0,   55.0,   55.0,   55.1,   55.0,   55.0,   55.0,   55.2,   55.1,   55.1,   55.1,   55.0,   55.1,   55.1,   55.0,   55.1,   55.3,  999.0,   55.3,   55.1,   55.2,  999.0,  999.0,  999.0,  999.0,  999.0,  999.0,  999.0,  999.0,  999.0
2005/10/04 07:40,  999.0,   -0.4,    0.3,    1.8,    4.6,    6.4,    7.9,    8.2,   10.5,   11.1,   12.4,   12.3,   11.6,   12.1,   12.5,  999.0,   12.9,   13.5,  999.0,  999.0,  999.0,  999.0,  999.0,  999.0,  999.0,  999.0,  999.0,  999.0,  999.0,  999.0,  999.0,  999.0,   55.1,  999.0,   55.0,   55.1,   55.2,   55.1,   55.1,   55.2,   55.3,   52.3,   52.5,   52.3,   55.1,   55.1,   55.1,   55.1,   55.4,   55.4,   55.0,   55.0,   55.0,  999.0,  999.0,  999.0,  999.0,  999.0,  999.0,  999.0,  999.0,  999.0,  999.0
2005/10/04 07:50,  999.0,   -0.4,    1.2,    4.0,    5.5,    6.6,    7.9,    8.3,    9.5,   10.5,   11.1,   11.7,   12.3,   12.7,   12.7,   13.7,   14.0,   13.7,   13.8,  999.0,  999.0,  999.0,  999.0,  999.0,  999.0,  999.0,  999.0,  999.0,  999.0,  999.0,  999.0,  999.0,  999.0,   54.9,   55.0,   54.9,   55.0,   55.0,   55.0,   55.0,   55.0,   55.0,   55.0,   55.0,   55.2,   55.1,   55.1,   55.2,   55.1,   55.2,   55.2,   55.1,   55.1,   55.0,  999.0,   55.3,  999.0,  999.0,  999.0,  999.0,  999.0,  999.0,  999.0
2005/10/04 08:00,  999.0,   -0.9,    1.1,    3.7,    5.7,    6.6,  999.0,    7.5,    9.3,    9.7,   10.6,   11.9,   13.2,   13.3,   12.8,   13.3,   14.3,   14.3,   13.9,  999.0,   12.1,  999.0,   12.3,  999.0,  999.0,  999.0,  999.0,  999.0,  999.0,  999.0,  999.0,  999.0,  999.0,  999.0,  999.0,   55.0,   55.1,   55.0,   55.0,   55.4,   55.0,   55.0,   55.1,   55.0,   55.1,   55.0,   55.2,   55.1,   55.2,   55.2,   55.5,   55.2,   55.2,   55.3,   55.3,   55.2,   55.9,  999.0,   54.9,  999.0,  999.0,  999.0,  999.0
2005/10/04 08:10,  999.0,  999.0,    1.0,    4.8,    6.5,    6.3,    7.6,    8.1,    8.2,   10.4,   10.7,   12.0,   13.4,   13.4,   13.1,   14.0,   14.1,   14.4,   14.5,   13.9,   12.4,   12.9,   12.3,   12.1,   12.2,  999.0,  999.0,  999.0,  999.0,  999.0,  999.0,  999.0,  999.0,  999.0,  999.0,  999.0,  999.0,  999.0,  999.0,   54.8,  999.0,   54.9,   55.0,  999.0,   55.1,   55.1,   55.2,   55.1,   55.1,  999.0,  999.0,  999.0,  999.0,  999.0,  999.0,  999.0,  999.0,  999.0,  999.0,  999.0,  999.0,  999.0,  999.0
2005/10/04 08:20,  999.0,    0.2,    1.2,    4.6,    5.4,    7.0,    7.0,  999.0,  999.0,    9.9,   10.4,   12.3,   11.6,   13.1,   13.1,   14.5,   14.4,   14.2,   14.0,   13.7,   12.4,   12.5,   11.9,   12.3,   11.3,   11.0,  999.0,  999.0,  999.0,  999.0,   16.0,   16.5,   16.9,   16.6,   16.0,   15.8,   16.6,   20.2,   19.7,   19.4,   19.4,   19.5,   20.6,   20.6,   18.6,   16.6,   17.0,   19.4,   19.7,   18.2,   18.3,  999.0,  999.0,  999.0,  999.0,  999.0,  999.0,  999.0,  999.0,  999.0,  999.0,  999.0,  999.0
2005/10/04 08:30,  999.0,   -0.3,    2.0,    4.1,    5.5,    7.3,    7.2,    8.9,   10.2,   10.0,   11.1,   12.5,   13.0,   13.7,   12.9,   13.1,   13.8,   14.6,   13.7,   14.0,   12.5,  999.0,   12.6,   12.3,  999.0,  999.0,   12.5,   14.2,   15.6,   15.9,   16.4,   16.6,   16.7,   15.8,   15.1,   15.5,   16.4,   16.2,   15.1,   14.8,   15.0,   16.2,   16.4,   16.3,   16.8,   16.8,   16.6,   16.8,   16.8,   17.9,  999.0,  999.0,  999.0,  999.0,  999.0,  999.0,  999.0,  999.0,  999.0,  999.0,  999.0,  999.0,  999.0
2005/10/04 08:40,  999.0,    0.0,    1.2,    4.1,    6.4,    7.2,    8.9,  999.0,    9.7,    9.9,   10.3,   10.5,   11.2,   13.3,   12.7,   12.9,   14.1,   15.3,   13.9,   13.5,   13.2,   11.8,   12.2,  999.0,  999.0,  999.0,   12.9,   14.6,   15.8,   16.0,   16.1,   16.3,   16.2,   15.2,   15.3,   16.0,   16.5,   16.1,   15.0,   15.0,   16.2,   17.6,   16.9,   16.9,   17.2,   17.1,   16.8,   16.7,  999.0,  999.0,  999.0,  999.0,  999.0,  999.0,  999.0,  999.0,  999.0,  999.0,  999.0,  999.0,  999.0,  999.0,  999.0
2005/10/04 08:50,  999.0,    0.2,    0.7,    3.0,    6.3,    6.8,    8.3,    7.5,    8.9,    9.7,   10.3,   10.9,   11.1,   12.4,   12.7,   12.7,   14.0,   14.1,   13.4,   12.2,  999.0,  999.0,  999.0,  999.0,  999.0,  999.0,   14.7,   15.1,   15.7,   15.9,   16.1,   16.3,   16.1,   15.9,   16.1,   16.2,   16.2,   16.4,   16.3,   15.5,   15.5,   16.5,   17.3,   17.2,  999.0,  999.0,  999.0,  999.0,  999.0,  999.0,  999.0,  999.0,  999.0,  999.0,  999.0,  999.0,  999.0,  999.0,  999.0,  999.0,  999.0,  999.0,  999.0
2005/10/04 09:00,  999.0,    0.2,    1.5,    3.0,    6.1,    6.6,    8.0,    8.9,    8.7,    9.5,    9.8,   10.6,   11.2,   14.6,   10.7,  999.0,   14.1,   12.8,  999.0,   12.3,  999.0,  999.0,  999.0,  999.0,  999.0,   15.2,   16.2,   16.2,   16.0,   15.7,   15.7,   15.8,   15.9,   15.9,   16.0,   16.2,   16.1,   16.3,   16.5,   16.1,   15.8,   15.7,   16.1,  999.0,  999.0,  999.0,  999.0,  999.0,  999.0,  999.0,  999.0,  999.0,  999.0,  999.0,  999.0,  999.0,  999.0,  999.0,  999.0,  999.0,  999.0,  999.0,  999.0
2005/10/04 09:10,  999.0,    7.9,    1.3,    2.8,    4.3,    6.4,  999.0,  999.0,   10.7,   12.7,   17.6,   17.4,   18.9,   19.0,  999.0,  999.0,  999.0,  999.0,  999.0,   21.3,  999.0,  999.0,  999.0,  999.0,  999.0,  999.0,  999.0,   16.3,   16.5,   16.6,   16.4,   16.5,   16.6,   16.2,   16.3,   16.4,   16.7,   16.6,   16.5,   15.8,   15.9,  999.0,  999.0,  999.0,  999.0,  999.0,  999.0,  999.0,  999.0,  999.0,  999.0,  999.0,  999.0,  999.0,  999.0,  999.0,  999.0,  999.0,  999.0,  999.0,  999.0,  999.0,  999.0
2005/10/04 09:20,  999.0,    0.7,    1.6,    4.5,    4.9,    6.0,    6.7,    8.5,    9.1,    9.5,   10.0,   11.1,   10.6,  999.0,   11.5,   11.0,   12.2,   12.5,   11.7,   13.0,   12.7,  999.0,  999.0,  999.0,  999.0,  999.0,  999.0,   16.3,   16.4,   16.2,   16.7,   16.7,   16.8,   16.3,   16.7,   16.5,   16.6,   16.6,   16.3,  999.0,  999.0,  999.0,  999.0,  999.0,  999.0,  999.0,  999.0,  999.0,  999.0,  999.0,   55.1,  999.0,   54.7,   55.1,  999.0,  999.0,  999.0,  999.0,  999.0,  999.0,  999.0,  999.0,  999.0
2005/10/04 09:30,  999.0,    0.8,    2.0,    5.6,    5.1,    6.0,    7.3,    8.5,    9.0,   10.4,   10.8,   11.0,   11.5,   12.0,   11.9,   11.7,   11.0,   11.6,   12.2,   12.7,   13.4,   13.9,  999.0,  999.0,  999.0,  999.0,  999.0,  999.0,  999.0,  999.0,  999.0,  999.0,  999.0,   15.4,   15.2,   15.8,   16.5,   16.5,  999.0,  999.0,  999.0,  999.0,  999.0,  999.0,  999.0,  999.0,  999.0,  999.0,  999.0,  999.0,   55.3,  999.0,   55.0,   55.9,  999.0,  999.0,  999.0,  999.0,  999.0,  999.0,  999.0,  999.0,  999.0
2005/10/04 09:40,  999.0,    1.7,    2.3,    3.6,    3.8,    6.1,    7.2,    8.7,    9.4,    9.9,   10.4,   11.5,   11.6,   12.3,   11.4,   11.3,   11.9,   12.9,   12.9,   13.3,   13.9,  999.0,  999.0,  999.0,  999.0,  999.0,   54.8,   54.8,   54.8,   54.8,   54.8,   54.8,   54.8,   54.9,   54.9,   54.9,   54.9,   54.8,   54.8,   54.9,   54.9,   54.8,   55.0,   54.9,   55.0,   54.8,   55.3,   55.1,   55.0,   55.2,   55.2,   55.3,   55.0,   55.1,   54.8,   55.2,  999.0,  999.0,   55.2,  999.0,  999.0,  999.0,  999.0
2005/10/04 09:50,  999.0,    2.9,    3.6,    5.6,    3.4,    6.2,    7.1,    8.4,    9.0,   10.6,   10.6,   11.0,   11.7,   12.1,   11.3,   11.2,   12.3,   14.4,   13.6,   13.0,   14.1,  999.0,  999.0,  999.0,  999.0,  999.0,  999.0,   55.0,   55.0,   55.0,   55.0,   55.0,   55.0,   55.0,   55.0,   55.1,   55.0,   55.0,   55.1,   55.1,   55.1,   55.1,   55.2,   55.1,   55.1,   55.3,   55.2,   55.1,   55.1,  999.0,  999.0,  999.0,  999.0,  999.0,  999.0,  999.0,  999.0,  999.0,  999.0,  999.0,  999.0,  999.0,  999.0
2005/10/04 10:00,  999.0,    4.7,    3.3,    3.8,    4.9,    6.8,    6.6,    8.1,    9.2,   10.2,   10.5,   10.8,   11.5,   11.6,   11.5,   11.3,   12.4,   14.4,   13.0,   13.5,   13.7,   14.6,  999.0,  999.0,  999.0,  999.0,  999.0,   54.9,   54.9,   54.9,   54.9,   54.8,   54.9,   54.9,   54.9,   54.9,   54.9,   55.0,   54.9,   54.9,   55.0,   55.0,   55.0,   55.0,   55.2,   55.0,   55.0,   54.9,   55.1,   55.2,  999.0,  999.0,  999.0,  999.0,   55.2,  999.0,  999.0,  999.0,  999.0,  999.0,  999.0,  999.0,  999.0
2005/10/04 10:10,  999.0,    1.0,  999.0,    3.9,    6.3,    7.3,    8.2,    9.4,   10.1,   10.9,   11.0,   11.2,   11.6,   11.7,   12.1,   12.5,   13.8,   13.9,   13.5,   13.7,   13.3,   14.7,  999.0,  999.0,  999.0,  999.0,  999.0,  999.0,   54.8,   55.0,   54.8,   54.9,   54.9,   55.0,   55.0,   54.9,   55.0,   55.0,   55.0,   55.1,   55.1,   55.0,   55.3,  999.0,   54.9,  999.0,   55.2,  999.0,   54.7,  999.0,  999.0,  999.0,  999.0,  999.0,  999.0,  999.0,  999.0,  999.0,  999.0,  999.0,  999.0,  999.0,  999.0
2005/10/04 10:20,  999.0,   -0.7,  999.0,  999.0,    4.5,    7.5,    8.4,    8.7,   10.4,   10.9,   11.3,   11.6,   11.2,   11.3,   11.5,  999.0,   14.1,   13.3,   13.4,   13.9,   14.6,  999.0,  999.0,  999.0,  999.0,  999.0,  999.0,   55.0,   55.0,   55.0,   54.9,   54.9,   55.0,   54.9,   55.0,   55.0,   55.0,   55.0,   55.0,   55.1,   55.0,   55.0,   55.1,   55.1,   55.0,   55.0,   55.1,  999.0,   55.1,  999.0,  999.0,  999.0,  999.0,  999.0,  999.0,  999.0,  999.0,  999.0,  999.0,  999.0,  999.0,  999.0,  999.0
2005/10/04 10:30,  999.0,  999.0,  999.0,    0.9,    3.1,    7.2,    7.8,    9.4,   10.6,   11.2,   11.3,   11.9,   11.6,   11.4,   12.0,   13.5,   14.9,   13.6,   13.1,   13.6,   14.2,  999.0,  999.0,  999.0,  999.0,  999.0,  999.0,   54.8,   54.8,   54.8,   54.8,   54.9,   54.7,   54.8,   54.8,   54.9,   54.7,   54.9,   54.9,   54.7,   54.8,   54.8,   54.8,   54.8,   54.9,   55.1,   54.9,  999.0,  999.0,  999.0,  999.0,  999.0,  999.0,  999.0,  999.0,  999.0,  999.0,  999.0,  999.0,  999.0,  999.0,  999.0,  999.0
2005/10/04 10:40,  999.0,    3.7,    4.9,    5.7,  999.0,    7.7,    9.4,    9.9,   10.7,   11.1,   11.3,   12.6,   11.8,   11.7,   12.0,   14.1,   15.0,   14.7,   13.2,   13.5,   13.9,  999.0,  999.0,  999.0,  999.0,  999.0,  999.0,   54.8,   54.9,   54.9,   54.9,   54.8,   54.8,   54.8,   54.9,   54.9,   54.8,   54.9,   54.9,   54.9,  999.0,   55.0,   54.9,  999.0,  999.0,  999.0,  999.0,  999.0,  999.0,  999.0,  999.0,  999.0,  999.0,  999.0,  999.0,  999.0,  999.0,  999.0,  999.0,  999.0,  999.0,  999.0,  999.0
2005/10/04 10:50,  999.0,  999.0,    3.3,    0.6,    2.6,    6.7,    7.7,    9.2,   10.5,   11.0,   10.9,   11.3,   11.4,   11.8,   12.4,   13.9,   14.9,   13.9,   13.4,   12.3,   13.4,   14.9,   15.4,  999.0,  999.0,  999.0,  999.0,  999.0,   55.0,   55.0,   54.9,   54.9,   55.0,   54.8,   54.9,   54.9,   55.1,   54.9,   54.9,   54.6,   55.1,   55.0,   54.8,  999.0,  999.0,  999.0,  999.0,  999.0,   55.2,  999.0,  999.0,  999.0,  999.0,  999.0,  999.0,  999.0,  999.0,  999.0,  999.0,  999.0,  999.0,  999.0,  999.0
2005/10/04 11:00,  999.0,    1.5,    2.4,    1.8,    3.3,    5.7,    8.8,    9.1,   10.3,   10.9,   11.1,   11.4,   11.7,   12.1,   11.9,   14.1,   14.7,   14.2,   13.2,   13.2,   14.5,   15.2,  999.0,  999.0,  999.0,  999.0,  999.0,  999.0,  999.0,   54.7,   54.8,   54.7,   54.7,   54.7,   54.8,   54.6,   54.7,   54.8,   54.8,   54.8,   54.6,   54.9,  999.0,  999.0,  999.0,  999.0,  999.0,  999.0,  999.0,  999.0,  999.0,  999.0,  999.0,  999.0,  999.0,  999.0,  999.0,  999.0,  999.0,  999.0,  999.0,  999.0,  999.0
2005/10/04 11:10,  999.0,    1.3,    2.2,    1.4,    3.3,    7.7,    8.9,    9.0,   10.3,   10.7,   10.9,   11.3,   11.6,   11.6,   11.8,   12.9,   14.2,   14.3,   13.5,   12.8,   13.8,   14.2,   14.1,   15.4,   16.0,  999.0,  999.0,  999.0,  999.0,  999.0,   54.7,   54.9,   54.8,   55.0,   54.7,   54.9,   54.8,   55.4,  999.0,  999.0,  999.0,  999.0,  999.0,  999.0,  999.0,  999.0,  999.0,  999.0,  999.0,  999.0,  999.0,  999.0,  999.0,  999.0,  999.0,  999.0,  999.0,  999.0,  999.0,  999.0,  999.0,  999.0,  999.0
2005/10/04 11:20,  999.0,  999.0,  999.0,    3.1,    2.5,    7.3,    9.7,    9.4,   10.6,   10.9,   10.8,   11.4,   11.3,   12.6,   12.5,   13.3,   13.9,   12.7,   12.7,  999.0,   13.7,   13.8,   14.4,   15.7,   16.3,  999.0,  999.0,  999.0,  999.0,  999.0,  999.0,   55.0,   54.9,   55.0,   54.9,   52.2,   51.0,   52.4,   55.2,  999.0,   55.0,   45.3,  999.0,   19.6,   19.9,   25.8,   18.7,  999.0,  999.0,  999.0,  999.0,  999.0,  999.0,  999.0,  999.0,  999.0,  999.0,  999.0,  999.0,  999.0,  999.0,  999.0,  999.0
2005/10/04 11:30,  999.0,    3.2,    3.9,    2.8,    4.7,    7.4,   10.3,   10.5,   10.5,   11.1,   11.2,   11.5,   12.0,   12.2,   12.1,   12.5,   13.8,   13.5,   12.8,   14.0,   14.8,   15.4,   15.9,   16.4,  999.0,  999.0,  999.0,  999.0,  999.0,   54.8,   54.8,   54.9,   54.8,   54.8,   54.9,   54.9,   54.9,   54.8,   54.9,   54.9,   54.9,   54.8,  999.0,  999.0,  999.0,  999.0,  999.0,  999.0,  999.0,  999.0,  999.0,  999.0,  999.0,  999.0,  999.0,  999.0,  999.0,  999.0,  999.0,  999.0,  999.0,  999.0,  999.0
2005/10/04 11:40,  999.0,    3.8,    3.5,    2.6,    4.3,    8.0,    9.0,    8.6,   10.9,   11.5,   11.3,   11.9,   12.1,   12.3,   12.5,   13.5,   14.3,   14.3,   14.4,   14.8,   15.2,   15.4,   15.8,   16.6,  999.0,  999.0,  999.0,  999.0,  999.0,   54.9,  999.0,   54.9,   54.9,   55.0,  999.0,   54.9,  999.0,  999.0,  999.0,  999.0,  999.0,   19.1,   19.4,   19.5,   18.6,   18.3,   17.5,  999.0,  999.0,  999.0,  999.0,  999.0,  999.0,  999.0,  999.0,  999.0,  999.0,  999.0,  999.0,  999.0,  999.0,  999.0,  999.0
2005/10/04 11:50,  999.0,    2.2,    1.9,    3.3,    4.3,    8.6,    8.9,    9.1,   10.5,   10.8,   11.5,   11.8,   13.1,   13.4,   13.6,   14.0,   14.9,   14.6,  999.0,   15.3,   15.5,  999.0,  999.0,  999.0,  999.0,  999.0,  999.0,  999.0,  999.0,  999.0,  999.0,   55.0,   55.1,   55.1,   55.1,   55.0,   54.9,   55.0,  999.0,   55.0,   55.1,   55.0,   55.1,   55.3,  999.0,   55.2,   55.2,   55.2,   55.4,   55.2,   55.2,   55.1,  999.0,  999.0,  999.0,  999.0,  999.0,  999.0,  999.0,  999.0,  999.0,  999.0,  999.0
2005/10/04 12:00,  999.0,    1.4,    2.9,    3.8,    4.3,    6.9,    8.9,    8.6,    9.5,   10.1,   11.5,   12.2,   12.7,   13.0,   13.4,   13.9,   14.8,   14.4,   14.6,  999.0,  999.0,  999.0,  999.0,  999.0,  999.0,  999.0,  999.0,   35.7,  999.0,  999.0,  999.0,  999.0,  999.0,  999.0,  999.0,  999.0,  999.0,   55.0,   54.9,   54.9,   55.0,   54.9,   55.0,   54.9,   55.3,   55.0,   54.8,  999.0,  999.0,  999.0,   55.0,  999.0,  999.0,  999.0,  999.0,  999.0,  999.0,  999.0,  999.0,  999.0,  999.0,  999.0,  999.0
2005/10/04 12:10,  999.0,    0.8,    3.1,    2.1,    3.8,    7.0,    7.3,    8.0,    9.7,   10.7,   11.4,    8.6,   11.5,   12.0,   13.0,   13.7,   14.6,   14.9,   14.8,   17.8,  999.0,  999.0,   17.6,   17.4,   19.1,  999.0,  999.0,   24.0,   22.1,   21.2,   16.9,   16.1,  999.0,   18.2,   17.3,  999.0,  999.0,  999.0,   23.4,   34.1,   44.1,  999.0,  999.0,   25.7,   27.1,  999.0,  999.0,  999.0,  999.0,  999.0,  999.0,  999.0,  999.0,  999.0,  999.0,  999.0,  999.0,  999.0,  999.0,  999.0,  999.0,  999.0,  999.0
2005/10/04 12:20,  999.0,  999.0,    3.9,    5.6,    4.6,    7.6,    9.1,    9.8,    8.8,   10.5,   11.2,   11.0,   11.4,   12.0,   12.9,   12.9,   13.2,   14.4,   13.4,   10.6,   13.4,   12.9,   13.4,   16.1,   10.2,  999.0,   18.4,   18.1,   17.5,   16.3,   16.2,  999.0,  999.0,   19.4,   36.7,   35.9,   35.6,   42.1,   40.0,   41.9,   43.1,   36.0,   42.7,   44.4,   44.6,   55.2,  999.0,  999.0,  999.0,  999.0,   55.4,  999.0,  999.0,   55.1,  999.0,  999.0,  999.0,  999.0,  999.0,  999.0,  999.0,  999.0,  999.0
2005/10/04 12:30,  999.0,  999.0,    4.1,    3.8,    4.3,    6.5,    8.2,    8.9,    9.2,   10.2,   10.6,   11.3,   11.6,   12.4,   12.9,   13.0,   13.5,   14.0,   13.7,   13.7,   14.4,   15.1,   16.0,   16.9,  999.0,  999.0,  999.0,  999.0,  999.0,  999.0,  999.0,  999.0,  999.0,  999.0,   54.6,   54.9,   54.8,   55.0,   54.9,   54.8,   55.0,   54.9,   54.8,   55.1,   55.1,  999.0,  999.0,   55.0,   55.2,  999.0,  999.0,  999.0,  999.0,  999.0,  999.0,  999.0,  999.0,  999.0,  999.0,  999.0,  999.0,  999.0,  999.0
2005/10/04 12:40,  999.0,    1.9,    1.7,    2.7,    4.7,    4.9,    5.2,    7.8,    9.0,   10.2,   10.6,   11.1,   12.2,   13.0,   13.5,   15.6,   13.4,   13.3,   13.4,   14.1,   13.7,   15.9,   15.1,   17.5,   17.3,   19.4,   21.4,   20.4,   19.6,   20.3,   20.1,   20.1,   20.6,  999.0,   20.8,   32.2,  999.0,  999.0,  999.0,  999.0,  999.0,  999.0,  999.0,  999.0,  999.0,  999.0,  999.0,  999.0,  999.0,  999.0,  999.0,  999.0,  999.0,  999.0,  999.0,  999.0,  999.0,  999.0,  999.0,  999.0,  999.0,  999.0,  999.0
2005/10/04 12:50,  999.0,  999.0,    1.4,    3.6,    3.6,    3.7,    6.2,    7.1,    5.4,   10.0,   10.9,   11.8,   13.1,   12.4,   13.5,   13.9,   14.3,   14.2,   14.4,   15.1,   15.7,   16.1,   17.2,   20.2,   21.2,   21.7,   21.9,   21.7,  999.0,  999.0,  999.0,  999.0,  999.0,  999.0,  999.0,  999.0,  999.0,   37.2,  999.0,  999.0,  999.0,  999.0,  999.0,  999.0,  999.0,  999.0,  999.0,  999.0,  999.0,  999.0,  999.0,  999.0,  999.0,  999.0,  999.0,  999.0,  999.0,  999.0,  999.0,  999.0,  999.0,  999.0,  999.0
2005/10/04 13:00,  999.0,    2.0,    3.1,    3.5,    4.7,    6.6,    8.9,    8.2,    8.6,    9.4,   10.3,   11.2,   12.1,   12.7,   13.1,   13.2,   13.4,   14.1,   14.9,   15.3,   16.1,   17.2,   18.5,   19.0,   20.1,   20.4,   20.4,   19.4,   19.0,   18.3,   18.1,  999.0,  999.0,  999.0,  999.0,  999.0,  999.0,   36.3,  999.0,  999.0,  999.0,  999.0,  999.0,  999.0,  999.0,  999.0,  999.0,  999.0,  999.0,  999.0,  999.0,  999.0,  999.0,  999.0,  999.0,  999.0,  999.0,  999.0,  999.0,  999.0,  999.0,  999.0,  999.0
2005/10/04 13:10,  999.0,    2.5,    8.2,    3.8,    4.6,    5.5,    7.9,    9.3,    8.3,    8.7,    9.9,   10.9,   11.1,   12.1,   12.4,   12.3,   12.9,   13.4,   15.0,   14.9,   16.3,   17.2,   18.2,   19.0,   19.6,   19.4,   20.0,   19.4,   19.3,   18.7,   18.1,   18.2,   18.2,   18.5,  999.0,  999.0,  999.0,  999.0,  999.0,  999.0,  999.0,   55.0,   55.1,   55.1,   55.0,  999.0,  999.0,  999.0,  999.0,  999.0,  999.0,  999.0,  999.0,  999.0,  999.0,  999.0,  999.0,  999.0,  999.0,  999.0,  999.0,  999.0,  999.0
2005/10/04 13:20,  999.0,    4.6,    3.6,    2.8,    3.1,    4.5,    9.9,    2.1,  999.0,    5.7,   10.2,   10.9,   10.2,   10.3,   10.7,   10.5,   11.7,   13.6,   13.9,   19.0,   18.9,   17.8,   17.5,   16.2,   15.9,  999.0,  999.0,   18.2,   18.0,   17.1,   16.0,   16.1,   16.3,   15.8,   15.6,   15.6,   16.9,   18.0,   18.4,  999.0,  999.0,  999.0,  999.0,  999.0,  999.0,  999.0,  999.0,  999.0,  999.0,  999.0,  999.0,  999.0,  999.0,  999.0,  999.0,  999.0,  999.0,  999.0,  999.0,  999.0,  999.0,  999.0,  999.0
2005/10/04 13:30,  999.0,    4.1,    3.2,    3.3,    3.9,    5.6,    6.9,    8.3,    8.1,    9.6,    9.5,    9.3,    9.3,   10.2,   11.3,   11.6,   11.9,   12.0,   13.9,   13.7,   14.9,   14.8,   14.6,   14.9,   16.1,   16.9,  999.0,   17.1,   16.4,   16.4,   16.9,   17.3,   17.3,   16.5,   16.4,   15.8,   16.6,   17.3,   17.4,  999.0,  999.0,   18.2,  999.0,  999.0,  999.0,  999.0,  999.0,  999.0,  999.0,  999.0,  999.0,  999.0,  999.0,  999.0,  999.0,  999.0,  999.0,  999.0,  999.0,  999.0,  999.0,  999.0,  999.0
2005/10/04 13:40,  999.0,    3.1,    3.2,    2.5,    3.5,    4.7,    6.9,    7.5,    7.7,    8.4,   10.5,   10.2,    9.8,   12.2,   12.8,   14.7,   13.5,   16.6,   17.5,   18.2,   17.5,   17.8,   16.5,   15.9,   16.3,   16.5,   17.3,   17.9,   18.3,   18.1,   17.9,   18.4,   19.3,   18.4,  999.0,  999.0,  999.0,  999.0,  999.0,   28.3,  999.0,  999.0,  999.0,  999.0,  999.0,   55.3,  999.0,  999.0,  999.0,  999.0,  999.0,  999.0,  999.0,  999.0,  999.0,  999.0,  999.0,  999.0,  999.0,  999.0,  999.0,  999.0,  999.0
2005/10/04 13:50,  999.0,    4.3,    5.4,    6.6,    5.2,    7.4,    8.2,    7.6,    9.4,   10.0,   11.2,   11.7,   12.2,    9.8,   12.7,   13.7,  999.0,  999.0,   13.5,   16.4,   14.7,   15.1,   13.8,   12.3,   13.8,   15.5,   16.0,   17.1,   17.0,   17.9,   18.3,   18.7,   19.3,   18.8,   19.2,   18.5,   18.2,   18.6,   17.4,   18.3,   17.5,   18.0,  999.0,  999.0,  999.0,  999.0,  999.0,  999.0,  999.0,  999.0,  999.0,  999.0,  999.0,  999.0,  999.0,  999.0,  999.0,  999.0,  999.0,  999.0,  999.0,  999.0,  999.0
2005/10/04 14:00,  999.0,    5.1,    4.0,    4.1,    6.9,    7.5,   11.5,    7.0,    6.8,    9.7,    9.4,   10.3,    8.9,   10.9,   11.9,   12.0,   12.3,   12.3,   12.0,   11.8,   11.8,   11.9,   12.1,   12.7,   12.9,   13.1,   13.8,   15.2,   14.8,   15.1,   15.2,   14.7,   15.6,   15.7,   14.6,   14.8,   14.7,   17.8,   17.4,   16.9,   15.2,   15.6,   16.4,   17.1,   17.6,   18.1,   17.2,   19.5,   18.2,   18.2,  999.0,  999.0,  999.0,  999.0,  999.0,  999.0,  999.0,  999.0,  999.0,  999.0,  999.0,  999.0,  999.0
2005/10/04 14:10,  999.0,    2.5,    3.8,    3.7,    5.3,    6.9,    7.6,    8.2,    8.1,    8.7,    9.2,    8.8,   10.5,   11.3,   12.3,   13.7,   14.1,   15.1,   15.5,   14.2,   14.6,   14.8,   14.7,   13.3,   14.7,   14.4,   15.7,   15.5,   15.3,   16.6,   16.3,   18.0,   18.3,   17.2,   17.0,   17.7,   17.6,   17.8,   16.8,   15.7,   15.7,   15.9,   15.4,   15.5,   13.7,   12.9,   15.1,  999.0,   16.1,   14.9,   18.1,  999.0,  999.0,  999.0,  999.0,  999.0,  999.0,  999.0,  999.0,  999.0,  999.0,  999.0,  999.0
2005/10/04 14:20,  999.0,    4.3,    4.0,    5.3,    3.9,    5.5,    7.3,    8.4,    9.9,    9.7,   11.2,   11.9,   12.3,   10.4,   12.5,   12.8,   11.6,   12.9,   15.5,   14.5,   14.6,   14.2,    9.2,   14.3,   11.2,    5.1,    5.2,    4.6,    6.1,    6.7,    6.8,    7.7,    3.8,    4.3,    4.4,   18.2,    1.6,   16.4,   12.4,   16.6,    6.0,  999.0,  999.0,  999.0,  999.0,  999.0,  999.0,  999.0,  999.0,    1.5,  999.0,  999.0,  999.0,  999.0,  999.0,  999.0,  999.0,  999.0,  999.0,  999.0,  999.0,  999.0,  999.0
2005/10/04 14:30,  999.0,    0.6,    3.2,    4.8,    5.2,    6.5,    7.9,    8.8,    9.2,    9.9,   10.2,   10.0,   10.5,   10.3,   13.1,   12.3,   13.0,   13.8,   14.7,   16.5,   15.3,   15.2,   17.8,   16.4,   16.2,   15.1,   13.1,   14.1,   13.4,   13.9,   14.0,   14.0,   14.1,   14.7,   15.2,   16.1,   17.4,   18.3,   16.7,   15.8,   16.2,   18.2,   17.8,   17.6,   18.0,   18.1,   18.3,   18.2,   18.4,   17.5,  999.0,  999.0,  999.0,  999.0,  999.0,  999.0,  999.0,  999.0,  999.0,  999.0,  999.0,  999.0,  999.0
2005/10/04 14:40,  999.0,   -0.3,    3.2,    5.0,    5.9,    6.1,    6.4,    7.7,    8.3,    8.8,    9.3,    9.8,   10.5,   11.5,   11.7,   12.3,   12.5,   12.3,   12.0,   11.6,   11.4,   11.9,   13.5,   13.0,   14.2,   14.2,   14.1,   15.3,   14.4,   13.3,   14.7,   14.6,   14.8,   15.3,   15.2,   15.3,   14.5,   14.2,   15.9,   16.7,   17.4,   17.8,   17.9,   17.9,   17.7,   17.6,   17.4,  999.0,  999.0,  999.0,  999.0,  999.0,  999.0,  999.0,  999.0,  999.0,  999.0,  999.0,  999.0,  999.0,  999.0,  999.0,  999.0
2005/10/04 14:50,  999.0,    0.5,    2.1,    3.3,    4.7,    5.5,    6.4,    7.3,    8.8,   10.3,   10.8,   11.4,   12.6,   13.2,   13.3,   13.6,   14.4,   15.1,   15.0,   15.1,   15.6,   15.5,   16.0,   15.5,   15.6,   14.1,  999.0,   15.2,   15.7,   15.2,   14.8,   14.8,   15.0,   14.9,   15.2,   15.6,   15.4,   15.3,   15.5,   15.7,   15.9,   16.3,   16.8,   17.3,   17.4,   17.9,  999.0,  999.0,  999.0,  999.0,  999.0,  999.0,  999.0,  999.0,  999.0,  999.0,  999.0,  999.0,  999.0,  999.0,  999.0,  999.0,  999.0
2005/10/04 15:00,  999.0,    0.5,    1.8,    2.7,    3.5,    4.5,    5.3,    7.4,   11.5,    9.8,   11.5,   12.6,   12.8,   12.9,   14.4,   13.3,   13.2,   13.7,   14.7,   14.8,   14.7,   14.7,   14.8,   15.4,   15.6,  999.0,  999.0,   16.8,   16.5,   16.4,   15.7,   15.2,   15.3,   15.9,   15.7,   15.0,   14.9,   14.8,   14.0,   14.0,   14.4,   15.0,   15.5,   15.8,   16.2,   16.6,   17.1,  999.0,  999.0,  999.0,   17.6,   18.6,   19.1,   20.2,  999.0,  999.0,  999.0,  999.0,  999.0,  999.0,  999.0,  999.0,  999.0
2005/10/04 15:10,  999.0,    0.4,    1.3,    2.2,    2.5,    3.1,    4.5,    7.5,    9.8,   11.0,   11.4,   11.6,   12.4,   12.3,   12.6,   13.2,   13.0,   13.4,   13.6,   14.4,   15.4,   15.1,   15.6,   15.2,   17.2,  999.0,  999.0,   17.0,   17.2,   17.2,   16.8,   16.8,   16.5,   16.2,   15.9,   15.5,   15.2,   15.0,   15.3,   15.1,   15.1,   15.7,   15.7,   15.6,   15.8,   16.3,   16.6,   16.8,   20.0,   19.2,   19.0,   18.9,   19.3,  999.0,  999.0,  999.0,  999.0,  999.0,  999.0,  999.0,  999.0,  999.0,  999.0
2005/10/04 15:20,  999.0,    0.7,    2.4,    3.5,    2.9,    3.1,    3.6,    4.9,    7.0,    8.8,   10.1,   11.2,   11.8,   12.1,   13.3,   15.0,   15.3,   14.8,   15.1,   15.0,   15.2,   15.6,   15.9,   16.2,   15.5,   15.8,   15.6,   16.0,   16.0,   17.2,   17.9,   17.6,   17.2,   16.7,   16.7,   16.6,   17.0,   16.9,   16.9,   16.8,   16.3,   16.0,   15.1,   15.1,   15.1,   15.7,   15.9,   15.6,  999.0,  999.0,  999.0,  999.0,   19.5,   20.1,  999.0,  999.0,  999.0,  999.0,  999.0,  999.0,  999.0,  999.0,  999.0
2005/10/04 15:30,  999.0,    0.4,    1.9,    2.5,    4.1,    5.3,    6.2,    7.7,   10.0,   10.6,   11.3,   11.5,   12.7,   13.7,   14.2,   14.6,   14.6,   14.9,   15.4,   16.5,   17.0,  999.0,   16.1,   17.8,  999.0,  999.0,  999.0,  999.0,  999.0,  999.0,   13.9,  999.0,   14.3,   14.7,   14.5,   14.5,   13.8,   13.1,   12.9,   12.9,   13.5,   13.5,   13.9,   13.9,   13.3,   14.1,  999.0,  999.0,  999.0,  999.0,  999.0,  999.0,  999.0,  999.0,  999.0,  999.0,  999.0,  999.0,   -3.5,  999.0,  999.0,  999.0,  999.0
2005/10/04 15:40,  999.0,    1.1,    2.0,    3.2,    3.7,    5.2,    7.4,    9.3,   11.2,   12.7,   12.4,   12.9,   12.8,   12.6,   12.4,   12.9,   13.6,   14.5,   15.4,   15.8,   17.0,   17.9,   18.5,   18.6,  999.0,  999.0,  999.0,   17.1,   15.4,   14.5,   13.4,   12.5,   12.8,   13.6,   13.3,   12.9,   12.9,   13.1,   13.4,   13.3,   13.5,   13.4,   13.8,   14.3,   14.2,   13.9,   14.4,  999.0,  999.0,  999.0,  999.0,  999.0,  999.0,  999.0,  999.0,  999.0,  999.0,  999.0,  999.0,  999.0,  999.0,  999.0,  999.0
2005/10/04 15:50,  999.0,    0.7,    1.4,    3.0,    3.5,    3.8,    6.5,    9.1,   11.1,   12.5,   11.8,   11.1,   10.4,   11.1,   12.5,   13.9,   15.2,   15.8,   15.6,   15.0,   14.5,   15.5,   16.0,   16.2,  999.0,  999.0,   17.3,   17.6,   16.4,   15.3,   14.8,   15.3,   15.9,   16.7,   15.5,   15.2,   14.5,   14.3,   14.0,   13.8,   13.8,   14.0,   14.5,   14.5,   14.3,   13.6,   14.3,   13.6,   14.7,   14.7,   15.1,   14.9,  999.0,  999.0,  999.0,  999.0,  999.0,  999.0,  999.0,  999.0,  999.0,  999.0,  999.0
2005/10/04 16:00,  999.0,   -0.8,   -0.3,    3.0,    4.4,  999.0,    7.1,    9.9,   12.2,   13.6,  999.0,    5.0,   12.0,   13.7,  999.0,  999.0,   15.7,   15.8,   15.7,   14.7,   15.1,   15.9,   15.8,   16.1,   17.1,  999.0,  999.0,   16.4,   14.8,   15.6,   16.3,   16.3,   16.1,  999.0,  999.0,  999.0,  999.0,  999.0,  999.0,  999.0,  999.0,   15.3,  999.0,  999.0,  999.0,  999.0,   24.6,   41.1,   55.3,  999.0,   55.4,  999.0,  999.0,  999.0,  999.0,  999.0,  999.0,  999.0,  999.0,  999.0,  999.0,  999.0,  999.0
2005/10/04 16:10,  999.0,   -1.1,   -0.4,    0.5,    2.1,    4.0,    7.9,  999.0,   11.8,   12.6,   12.4,   14.2,   12.9,   15.9,   18.2,   15.6,   15.8,   17.5,   17.3,   17.2,   16.7,   16.7,   17.3,  999.0,  999.0,   15.5,  999.0,   25.1,  999.0,   24.6,   27.9,   27.4,   33.8,  999.0,  999.0,  999.0,  999.0,  999.0,  999.0,  999.0,   55.1,   55.1,   55.2,   55.1,   55.3,   55.2,   55.5,   55.1,   55.2,  999.0,  999.0,  999.0,   55.3,  999.0,  999.0,  999.0,  999.0,  999.0,  999.0,  999.0,  999.0,  999.0,  999.0
2005/10/04 16:20,  999.0,    0.7,    1.1,    2.9,    3.9,    6.7,    7.8,   10.7,   13.3,   14.2,   14.5,   15.6,   16.2,   16.1,   18.1,   17.9,   17.1,   16.9,   16.3,   18.4,   17.4,   18.1,   19.5,   19.3,   17.1,   15.5,   18.7,   19.0,   13.5,   13.2,   18.3,   18.4,   12.9,   13.4,   13.8,   14.4,   15.5,   15.6,   14.9,   24.8,   24.7,   13.1,   13.0,   27.1,   27.6,   28.3,   29.0,  999.0,  999.0,  999.0,  999.0,  999.0,   19.3,  999.0,  999.0,  999.0,  999.0,  999.0,  999.0,  999.0,  999.0,  999.0,  999.0
2005/10/04 16:30,  999.0,    1.9,    1.7,    3.4,    4.6,    6.4,    9.0,   11.5,   12.5,   13.3,   13.8,   14.9,   16.2,   16.9,   17.2,   17.1,   17.9,   18.2,   18.2,   15.6,   13.9,   13.6,   15.9,   15.7,  999.0,  999.0,   17.9,   16.2,   14.1,   12.3,   11.3,   10.7,   10.6,   10.4,   10.7,   11.2,   11.2,   11.5,   12.0,   12.9,   12.9,   13.0,   13.1,   13.1,   12.5,   12.8,   12.6,   13.8,   16.1,   17.4,   18.8,   19.1,   19.6,   18.7,   17.8,   17.8,   16.7,   17.2,   17.3,  999.0,  999.0,  999.0,  999.0
2005/10/04 16:40,  999.0,    1.2,    1.4,    2.0,    3.5,    5.0,    6.7,    9.3,   11.4,   12.6,   13.5,   14.3,   15.8,   16.7,   16.8,   16.5,   16.6,   16.9,   17.2,   16.9,   16.4,   16.7,   17.3,   18.0,   17.7,  999.0,   19.3,   18.8,   16.3,   14.2,   13.3,   12.5,   11.8,   11.0,   10.7,   10.7,   10.8,   10.5,   10.6,   10.8,   10.4,   10.8,   10.7,   10.9,   10.5,   10.2,    9.1,    9.8,   10.4,   11.3,   12.1,   13.1,   14.3,   15.1,   15.9,   15.0,   15.0,   14.6,   15.3,   15.8,   15.9,   17.8,  999.0
2005/10/04 16:50,  999.0,    1.0,    0.5,    1.1,    2.2,    4.4,    6.9,    9.6,   11.6,   12.2,   14.1,   14.9,   15.8,   16.6,   17.1,   17.9,   17.8,   17.9,   16.7,   15.8,   15.9,   16.9,   17.2,   17.8,  999.0,  999.0,  999.0,   17.2,   15.0,   13.4,   12.3,   11.9,   11.9,   11.8,   11.8,   11.8,   11.9,   11.4,   11.1,   11.0,   11.2,   11.1,   11.0,   10.8,   11.0,   11.2,   11.8,   12.4,   12.6,   12.5,   12.4,   12.4,   12.3,  999.0,  999.0,  999.0,  999.0,  999.0,  999.0,  999.0,  999.0,  999.0,  999.0
2005/10/04 17:00,  999.0,    1.1,    0.6,    1.9,    2.7,    4.1,    7.0,    9.7,   10.9,   11.7,   12.6,   14.3,   15.2,   14.1,   14.9,   15.2,   15.6,   17.1,   16.2,   15.3,   15.2,   15.3,   15.1,   16.9,   16.4,   17.9,   19.7,   19.4,   19.1,   19.0,   18.5,   19.2,   19.8,   19.1,   18.3,   17.4,   16.4,   14.6,   13.7,   13.2,   13.0,   13.0,   12.7,   12.7,   12.9,   13.1,   13.0,   12.8,   12.9,   13.1,   13.3,   13.2,   13.6,   12.5,   13.7,   14.9,   16.2,  999.0,   17.3,  999.0,  999.0,  999.0,  999.0
2005/10/04 17:10,  999.0,    0.8,    0.9,    2.1,    3.7,    4.0,    6.3,    9.8,   11.4,   12.6,   13.6,   14.7,   14.2,   15.3,   16.4,   18.0,   18.1,   18.1,   18.8,   16.9,   15.5,   14.6,   15.6,   14.4,   15.4,   16.7,   18.0,  999.0,  999.0,  999.0,  999.0,  999.0,  999.0,  999.0,   25.4,  999.0,  999.0,  999.0,   17.6,   18.7,   19.4,   27.5,   26.0,   24.9,   24.5,   14.4,   24.3,   13.6,   13.2,   12.3,   12.4,   12.6,   12.7,   13.4,   14.2,   15.0,   15.8,   16.6,   18.6,   19.3,  999.0,  999.0,  999.0
2005/10/04 17:20,  999.0,    0.1,    0.4,    1.9,    2.0,    4.1,    7.8,    8.0,   12.4,   13.1,   13.0,   15.1,   15.6,   16.7,   17.2,   17.1,   17.6,   18.3,   17.5,   16.9,   14.9,   14.9,   15.4,   15.3,   15.3,   15.1,   16.2,   16.6,   16.7,   16.9,  999.0,  999.0,   17.6,   18.8,  999.0,  999.0,  999.0,  999.0,  999.0,  999.0,  999.0,   54.9,   55.1,   55.1,   55.1,   55.0,   55.2,   55.2,  999.0,  999.0,  999.0,  999.0,  999.0,  999.0,  999.0,  999.0,  999.0,  999.0,  999.0,  999.0,  999.0,  999.0,  999.0
2005/10/04 17:30,  999.0,    0.3,  999.0,  999.0,    2.4,    4.1,    7.2,   10.1,   12.6,   13.1,   14.1,   14.9,   15.8,   16.2,   17.8,   18.3,   18.6,   19.9,  999.0,   17.4,   17.3,   17.0,   17.3,   16.7,   16.3,   17.4,   18.3,   17.4,   17.0,   18.4,   17.6,   17.3,   16.6,   17.4,   17.8,   18.4,  999.0,  999.0,  999.0,  999.0,  999.0,  999.0,   55.1,   55.0,   55.1,   55.1,   54.9,   55.2,   55.2,  999.0,   55.3,   55.2,   55.6,   55.5,  999.0,  999.0,  999.0,  999.0,  999.0,  999.0,  999.0,  999.0,  999.0
2005/10/04 17:40,  999.0,  999.0,  999.0,    0.5,    0.5,    3.5,    6.1,    9.3,   12.4,   13.6,   14.9,   16.2,   17.3,   17.8,   18.4,   19.2,   19.1,   18.7,   19.2,   17.9,   17.8,   17.2,   17.3,   17.4,   18.1,   18.0,   18.9,   19.1,   18.8,   18.3,   17.6,   16.8,   16.8,   17.5,   18.0,   17.9,  999.0,  999.0,  999.0,  999.0,  999.0,  999.0,  999.0,  999.0,  999.0,  999.0,  999.0,  999.0,   55.7,  999.0,  999.0,  999.0,  999.0,  999.0,  999.0,  999.0,  999.0,  999.0,  999.0,  999.0,  999.0,  999.0,  999.0
2005/10/04 17:50,  999.0,    1.6,    1.7,    2.2,    2.6,    3.1,    5.3,    8.4,   11.4,   13.6,   14.7,   16.0,   16.6,   17.4,   18.3,   18.8,   18.4,   18.2,   18.3,   18.5,   18.1,   17.9,   17.8,   18.2,   18.6,   19.0,   19.6,  999.0,  999.0,  999.0,  999.0,   16.8,   17.6,   18.5,   19.3,   18.9,   19.3,  999.0,  999.0,  999.0,  999.0,  999.0,  999.0,  999.0,   54.9,   54.8,   55.0,   55.1,   55.2,   54.9,   55.0,   55.1,  999.0,  999.0,  999.0,  999.0,  999.0,  999.0,  999.0,  999.0,  999.0,  999.0,  999.0
2005/10/04 18:00,  999.0,    3.0,    1.7,    1.5,    2.8,    3.1,    5.5,    7.7,   11.3,   13.6,   15.5,   16.5,   16.9,   17.6,   18.7,   19.2,   19.4,   18.4,   18.9,   17.7,   18.2,  999.0,  999.0,  999.0,  999.0,  999.0,  999.0,  999.0,  999.0,  999.0,  999.0,   22.2,   20.7,   23.3,  999.0,  999.0,  999.0,  999.0,  999.0,  999.0,  999.0,   55.0,   55.1,   55.2,   55.2,   55.1,   55.1,   55.3,   54.9,   55.3,   55.2,   55.0,  999.0,  999.0,  999.0,  999.0,  999.0,  999.0,  999.0,  999.0,  999.0,  999.0,  999.0
2005/10/04 18:10,  999.0,    1.5,    0.0,    1.0,    2.0,    3.0,    5.2,    7.7,   11.4,   13.8,   15.4,   16.1,   16.9,   17.7,   18.6,   18.2,   18.5,   18.3,  999.0,  999.0,  999.0,  999.0,  999.0,   35.6,   35.6,   35.7,   36.1,  999.0,   36.6,   36.9,  999.0,  999.0,  999.0,  999.0,  999.0,   55.2,  999.0,   55.1,   55.2,   55.0,   55.1,   55.1,   55.1,   55.2,   55.4,   55.2,   55.1,   55.3,   55.0,   55.3,   55.1,   55.4,   55.2,   54.9,  999.0,  999.0,  999.0,   54.9,  999.0,  999.0,  999.0,  999.0,  999.0
2005/10/04 18:20,  999.0,    0.9,   -0.2,    0.2,    0.4,    3.0,    5.9,    7.1,   12.8,   13.2,   15.9,  999.0,   16.9,   17.4,   18.4,   18.2,   18.3,   18.2,   17.8,  999.0,  999.0,  999.0,   26.4,   29.1,   31.1,   36.6,  999.0,  999.0,   37.8,   37.2,  999.0,  999.0,  999.0,  999.0,   54.9,  999.0,   55.0,   55.0,   55.0,   55.1,   55.0,   55.1,   55.1,   55.1,   55.1,   55.3,   55.3,   55.0,   55.3,   55.4,   55.1,   55.2,  999.0,   55.4,  999.0,  999.0,  999.0,  999.0,  999.0,  999.0,  999.0,  999.0,  999.0
2005/10/04 18:30,  999.0,   -0.7,   -0.1,    0.2,    0.5,    2.1,    4.4,    7.1,   10.3,  999.0,   13.7,   14.5,   16.3,   16.8,   17.8,   17.2,   17.2,   17.0,   17.3,   16.7,   16.7,   17.1,   16.6,   17.0,   18.5,   19.3,   19.1,  999.0,  999.0,  999.0,  999.0,  999.0,  999.0,  999.0,   55.0,   55.2,   55.1,   55.2,   55.0,   55.0,   55.0,   55.1,   55.1,   55.1,   55.1,   55.2,   55.2,   55.2,   55.2,   55.3,   55.1,   55.3,   55.1,  999.0,   55.0,  999.0,  999.0,  999.0,  999.0,  999.0,  999.0,  999.0,  999.0
2005/10/04 18:40,  999.0,    0.6,   -0.1,   -0.9,    1.8,    2.4,    5.3,    7.3,    9.9,   13.9,   14.5,   16.0,   16.4,   17.6,  999.0,   16.7,   16.1,   16.6,   16.9,   16.7,   16.9,   17.8,   18.7,   19.1,   19.1,   18.7,  999.0,   19.4,  999.0,  999.0,  999.0,  999.0,  999.0,  999.0,   54.9,   55.1,   55.1,   55.1,   55.0,   55.0,   55.1,   55.2,   55.1,   55.2,   55.2,   55.1,   55.3,   55.3,   55.3,   55.4,   55.4,   55.2,   55.4,   55.3,   55.7,  999.0,   55.2,   55.2,  999.0,  999.0,  999.0,  999.0,  999.0
2005/10/04 18:50,  999.0,    1.2,   -0.6,   -0.5,    0.8,    3.4,    4.6,    8.7,   10.7,   13.9,   14.6,   15.5,   16.3,   17.2,   16.8,   16.5,   17.1,   17.1,   17.9,  999.0,  999.0,  999.0,  999.0,  999.0,  999.0,  999.0,  999.0,   54.9,   55.0,   55.0,   55.0,   55.0,  999.0,   55.0,   55.0,   55.0,   55.0,   55.0,   55.0,   54.9,   55.0,   55.0,   55.1,   55.0,   55.0,   55.0,   55.0,   55.3,   55.3,   55.4,   55.1,   55.5,   55.2,  999.0,  999.0,  999.0,  999.0,  999.0,  999.0,  999.0,  999.0,  999.0,  999.0
2005/10/04 19:00,  999.0,    0.6,    0.4,    0.3,    1.5,    3.4,    5.0,    8.1,   11.6,   14.0,   14.1,   14.8,   15.5,   16.4,   17.5,   16.6,   16.4,   17.6,   17.6,   19.1,   21.7,   21.2,   20.9,   25.9,   26.6,   31.9,   35.2,   38.5,   42.6,   46.6,   50.2,   51.6,   51.4,   51.4,   51.5,   52.5,   52.5,   51.8,   55.1,   55.0,   55.2,   55.1,   55.1,   55.0,   55.3,  999.0,  999.0,   55.5,   49.7,   50.1,   47.4,   47.2,   55.5,  999.0,  999.0,  999.0,  999.0,  999.0,  999.0,  999.0,  999.0,  999.0,  999.0
2005/10/04 19:10,  999.0,    0.9,    0.1,    0.9,    1.8,    3.5,    4.8,    7.7,   11.1,   13.9,   14.8,   14.3,   15.3,   15.7,   16.0,   15.7,   17.1,   17.6,  999.0,   18.5,   18.7,   18.7,   20.7,   19.9,   32.2,   32.8,   33.3,   36.2,   32.5,   38.0,   37.9,   37.5,   31.1,   34.8,   37.5,   31.4,   31.9,  999.0,   35.3,   40.9,   33.1,  999.0,   28.7,   20.7,   24.7,   27.8,   17.3,   27.8,   31.8,  999.0,   20.7,   27.5,   31.3,   31.9,  999.0,  999.0,  999.0,  999.0,  999.0,  999.0,  999.0,  999.0,  999.0
2005/10/04 19:20,  999.0,    0.1,    0.6,    1.0,    1.6,    2.5,    4.5,    7.0,   10.1,   12.9,   14.1,   14.3,   16.0,   16.3,   15.7,   15.5,   16.7,   16.9,   16.8,   18.0,   18.5,   18.2,   19.6,   21.6,   21.0,   21.8,   22.0,   21.9,   22.1,   21.5,   21.3,   20.5,   20.0,   20.2,   20.4,   20.4,  999.0,  999.0,  999.0,  999.0,   20.5,  999.0,   19.8,   18.4,   17.6,   17.0,   17.2,   17.0,   17.3,   18.0,   19.3,   19.7,   21.0,   22.6,   21.8,   21.3,   21.7,   21.9,  999.0,  999.0,  999.0,  999.0,  999.0
2005/10/04 19:30,  999.0,    0.2,    0.8,    1.1,    1.9,    2.9,    4.8,    8.2,   11.2,   13.2,   14.2,   15.1,   16.2,   16.9,   15.9,  999.0,   17.8,   18.0,  999.0,  999.0,  999.0,  999.0,  999.0,  999.0,  999.0,  999.0,  999.0,   54.9,  999.0,  999.0,  999.0,  999.0,  999.0,   24.5,   24.1,   23.7,   23.3,   24.3,   24.9,   24.5,   24.3,   23.1,   23.1,   23.2,   22.2,   23.5,   17.2,   22.9,   21.5,   22.6,   21.2,   21.3,   20.7,   22.8,   22.2,  999.0,  999.0,  999.0,  999.0,  999.0,  999.0,  999.0,  999.0
2005/10/04 19:40,  999.0,    0.3,    1.0,    1.9,    1.5,    1.9,    3.7,    7.8,    9.6,   13.1,   14.1,   15.8,   16.6,   15.9,   17.0,   18.1,  999.0,  999.0,  999.0,  999.0,  999.0,  999.0,  999.0,   55.0,   54.9,   55.0,   55.0,   55.1,   55.1,   55.0,   55.0,   55.0,   47.4,   47.2,   45.1,   34.9,   34.7,   34.6,   35.7,   35.4,   35.2,   34.9,   35.0,   29.4,   26.5,   23.6,   23.2,   18.1,   22.3,   23.0,   20.1,   20.0,   20.7,   22.2,   21.8,   21.9,   21.7,   22.5,   23.5,   24.2,   24.2,  999.0,  999.0
2005/10/04 19:50,  999.0,   -1.6,    0.9,    0.9,    1.4,    1.8,    3.0,    6.7,    9.9,   13.4,   13.3,   15.5,   15.4,   16.5,   16.8,   16.8,   17.4,  999.0,  999.0,  999.0,  999.0,  999.0,  999.0,  999.0,   54.8,   55.0,   54.8,   54.9,   54.9,   54.9,   54.9,   54.9,   54.9,   55.0,   54.9,   54.9,   54.9,   54.9,  999.0,  999.0,  999.0,  999.0,  999.0,  999.0,   17.7,   17.9,   18.2,   19.1,   19.9,   19.8,   20.1,   20.8,   21.6,   22.3,   22.0,   22.8,   22.6,  999.0,  999.0,  999.0,  999.0,  999.0,  999.0
2005/10/04 20:00,  999.0,    0.4,    2.0,    0.6,    0.7,    1.0,    2.9,    7.1,   10.2,   13.2,   13.8,   15.5,   15.4,   15.8,   14.9,   16.0,   16.8,   18.4,   18.4,   17.5,   17.8,   18.1,  999.0,  999.0,  999.0,  999.0,  999.0,  999.0,   55.0,   55.1,   55.0,   55.0,   55.2,   55.0,   55.1,   55.0,   55.1,   55.0,   55.1,   55.1,   55.0,  999.0,  999.0,  999.0,  999.0,  999.0,   18.9,   19.1,   19.4,   19.5,   20.2,   21.1,   21.8,   21.8,   22.3,   22.3,   23.0,   24.1,  999.0,  999.0,  999.0,  999.0,  999.0
2005/10/04 20:10,  999.0,   -0.4,    1.8,    1.4,    0.7,    2.0,    3.4,    4.7,   10.1,   13.5,   13.9,   15.4,   15.5,   15.9,   14.4,   16.0,   15.2,   17.1,   18.1,   18.0,   18.2,   18.2,  999.0,  999.0,  999.0,  999.0,  999.0,  999.0,  999.0,   55.0,   55.1,   55.1,   55.0,   55.0,   55.1,   55.1,   55.1,   55.1,   55.0,   55.1,   55.2,   55.1,   55.3,   55.2,   55.1,   55.1,  999.0,   37.2,   37.2,   37.6,  999.0,  999.0,   37.5,  999.0,  999.0,  999.0,  999.0,  999.0,  999.0,  999.0,  999.0,  999.0,  999.0
2005/10/04 20:20,  999.0,    0.3,    0.5,    1.5,    0.8,    2.9,    4.0,    4.0,   10.7,   12.4,   13.7,   15.0,   16.3,   15.3,   14.4,   16.0,   15.2,   16.2,   17.7,   17.1,   17.6,  999.0,  999.0,  999.0,  999.0,  999.0,  999.0,   55.0,  999.0,   54.8,   54.9,   55.0,   54.9,   54.9,   55.0,   55.0,   55.0,   54.9,   55.0,   54.9,   55.0,   55.0,   55.0,   55.1,  999.0,   55.0,   55.3,   55.0,   54.9,   48.6,  999.0,  999.0,  999.0,  999.0,  999.0,  999.0,  999.0,  999.0,  999.0,  999.0,  999.0,  999.0,  999.0
2005/10/04 20:30,  999.0,    1.2,    1.3,    1.4,    1.8,    2.9,    3.8,    4.8,    8.9,   11.5,   14.2,   14.8,   15.4,   14.9,   14.1,   14.8,   14.4,   16.2,  999.0,   17.4,  999.0,  999.0,  999.0,  999.0,  999.0,  999.0,  999.0,  999.0,   55.1,   55.0,   55.1,   55.1,   55.2,   55.2,  999.0,  999.0,  999.0,   38.0,   32.2,   31.2,   28.4,   28.1,   19.0,   19.2,   20.1,   20.3,   19.8,   20.0,   19.7,   20.3,   21.1,   21.5,   21.8,   22.0,   22.1,   21.6,   22.1,   23.5,   24.3,   25.0,   25.0,   25.0,   25.3
2005/10/04 20:40,  999.0,    0.1,    1.0,    1.1,    1.7,    1.6,    2.7,    5.3,  999.0,  999.0,   13.9,   14.8,   15.7,   14.8,   15.2,   14.4,   16.0,  999.0,   17.1,  999.0,  999.0,  999.0,  999.0,  999.0,  999.0,  999.0,  999.0,  999.0,   55.0,  999.0,   54.9,  999.0,  999.0,  999.0,  999.0,  999.0,  999.0,   21.1,   21.1,   20.0,   19.7,   19.3,   19.2,   19.8,   20.2,   20.3,   20.2,   20.2,   20.1,   20.8,   20.7,   20.8,   21.1,   21.2,   21.5,   21.5,   22.3,   23.3,   24.6,   25.3,   24.9,  999.0,  999.0
2005/10/04 20:50,  999.0,    0.8,    1.0,    1.8,    1.8,    1.6,    2.8,    5.5,    9.5,   10.7,   13.8,   15.3,   15.2,   14.4,   14.6,   14.8,  999.0,   16.6,  999.0,  999.0,  999.0,  999.0,  999.0,  999.0,  999.0,  999.0,  999.0,   54.9,   54.9,   54.9,   55.0,   54.9,  999.0,  999.0,  999.0,  999.0,  999.0,   21.7,   22.0,   21.3,   20.2,   19.7,   19.9,   19.7,   20.0,   20.1,   21.1,   21.2,  999.0,   22.0,  999.0,  999.0,  999.0,  999.0,  999.0,  999.0,  999.0,  999.0,  999.0,  999.0,  999.0,  999.0,  999.0
2005/10/04 21:00,  999.0,   -0.3,    0.9,    1.4,    1.5,    0.9,    2.3,    4.4,    7.9,   11.0,   13.6,   15.1,   15.4,   15.4,   13.9,   14.1,   14.9,   15.4,  999.0,  999.0,  999.0,  999.0,  999.0,  999.0,  999.0,  999.0,  999.0,  999.0,  999.0,  999.0,  999.0,   55.1,  999.0,   55.1,  999.0,  999.0,  999.0,  999.0,  999.0,  999.0,   23.9,   23.5,   23.1,  999.0,   25.1,   19.1,   19.7,   20.0,   20.1,   20.6,   20.5,   21.2,   21.7,   22.3,   23.6,  999.0,  999.0,  999.0,  999.0,  999.0,  999.0,  999.0,  999.0
2005/10/04 21:10,  999.0,   -0.0,    1.3,    1.3,    1.0,    1.2,    2.6,    4.8,    7.1,  999.0,   13.0,   14.7,   14.6,   14.5,   14.0,   14.7,   15.0,   15.8,   16.0,   17.0,  999.0,  999.0,  999.0,  999.0,  999.0,  999.0,  999.0,  999.0,   54.9,   55.0,  999.0,   55.0,   54.9,  999.0,  999.0,   55.0,  999.0,  999.0,  999.0,   21.5,   21.4,   20.3,   18.6,   18.4,   18.7,   19.0,   19.5,   19.9,   20.4,   20.6,   20.7,   21.3,   21.9,   22.6,  999.0,  999.0,  999.0,  999.0,  999.0,  999.0,  999.0,  999.0,  999.0
2005/10/04 21:20,  999.0,    0.1,    1.0,    1.4,    1.0,    0.7,    2.5,    5.2,    7.3,  999.0,   13.6,   15.1,   14.2,   13.6,   15.0,   14.8,   14.9,  999.0,   16.1,  999.0,  999.0,  999.0,  999.0,  999.0,   17.6,   17.2,  999.0,   54.9,   54.7,   54.8,   54.8,   54.8,   54.8,  999.0,  999.0,  999.0,  999.0,  999.0,   21.3,   21.4,   21.3,   20.8,   20.1,   19.8,   19.7,   19.3,   19.5,   19.8,   19.7,   20.2,   20.4,   21.0,   21.8,   22.7,   23.5,   24.4,   24.3,   24.6,   24.6,   24.4,   24.4,   24.8,  999.0
2005/10/04 21:30,  999.0,  999.0,    0.2,    0.4,    0.8,    2.1,    3.3,  999.0,    6.1,  999.0,   13.5,   14.7,   14.1,  999.0,  999.0,   15.5,  999.0,  999.0,  999.0,  999.0,   18.4,   18.6,  999.0,   17.9,   19.0,   19.8,  999.0,   30.7,   28.6,   29.5,   30.6,   31.3,   31.4,   30.9,   29.9,   22.3,   22.1,   21.1,   20.6,   21.1,   21.6,   21.5,   21.0,   20.2,   20.3,   20.2,   20.0,   20.2,   20.2,   20.5,   21.1,   21.5,   22.0,   22.7,   23.2,   23.4,   24.0,   24.3,   24.2,   24.5,   24.5,   24.4,   24.4
2005/10/04 21:40,  999.0,    0.9,    1.0,    1.0,    2.2,    2.6,    2.8,    6.0,    9.2,   12.3,  999.0,   14.6,   14.6,   14.5,   15.3,   16.2,   17.1,   17.9,   17.7,   18.2,   18.4,   18.8,   19.0,   17.7,   18.6,   19.4,   19.1,   19.1,   20.3,   21.9,   23.2,   23.8,   23.9,   23.3,   22.4,   21.5,   20.8,   20.8,   20.3,   19.9,   21.0,   22.2,   22.2,   20.9,   20.0,   20.3,   20.9,   21.2,   21.2,   21.5,   22.0,   21.9,   21.9,   22.4,   22.9,   23.2,   23.7,   23.8,   23.7,   23.6,   23.9,   23.6,   24.0
2005/10/04 21:50,  999.0,    0.9,    0.8,    1.3,    2.0,    2.8,    3.6,    6.4,   10.8,   12.7,   14.9,   14.4,   14.0,   14.7,   15.9,   17.2,   17.1,   16.9,   17.3,   18.0,   18.3,   18.2,   17.9,   17.7,   19.4,   20.1,   20.6,   20.9,   22.3,   23.3,   23.9,   23.7,   23.9,   23.1,   21.3,   20.4,   20.1,   20.4,   20.4,   20.2,   19.8,   19.8,   20.5,   21.4,   21.8,   21.7,   21.3,   21.1,   20.9,   21.3,   21.6,   21.3,   21.3,   22.3,   23.0,   23.3,   23.1,   23.4,   23.8,   24.2,   23.8,   24.2,  999.0
2005/10/04 22:00,  999.0,    1.3,    1.8,    1.8,    1.7,    2.6,    3.7,    5.1,    9.5,   12.5,   14.1,   13.9,   14.6,   13.8,   15.8,   16.6,   17.7,   18.1,   17.7,   18.1,   18.4,   16.8,   17.5,   20.0,   20.4,   20.8,   22.0,   23.5,   23.9,   24.4,   24.2,   23.1,   23.0,   22.4,   21.1,   20.6,   20.1,   20.0,   19.8,   19.9,   19.8,   19.5,   19.4,   19.9,   20.8,   21.7,   22.2,   22.2,   21.5,   21.0,   21.2,   21.4,   21.3,   22.0,   22.3,   22.7,   22.8,   23.1,   24.5,   23.8,   23.7,   23.2,  999.0
2005/10/04 22:10,  999.0,    0.9,    1.1,    1.3,    2.2,    3.2,    3.8,    5.7,   10.0,   12.2,   13.6,   13.7,   13.8,   14.6,   16.4,   17.3,   17.9,   19.0,   19.2,   18.7,   17.8,   16.9,   17.5,   19.4,   20.8,  999.0,   22.1,   23.2,   23.6,   24.2,   23.5,   22.6,   22.0,   21.8,   21.3,   20.5,   20.2,   19.8,   19.3,   19.0,   18.9,   18.5,   18.8,   19.1,   19.5,   20.0,   21.0,   21.8,   22.3,   22.0,   22.0,   21.9,   21.6,   22.4,   22.3,   22.6,   22.8,   23.2,   23.8,   23.4,   23.4,   22.9,   23.5
2005/10/04 22:20,  999.0,    1.0,    1.4,    1.6,    1.7,    2.5,    3.7,    6.6,   11.0,   12.6,   12.9,   13.5,   13.6,   14.5,   16.2,   17.0,   18.7,   20.3,   19.5,   18.6,   17.1,   16.1,   16.9,   18.2,   19.3,   19.8,   21.2,   22.9,   23.5,   23.0,   23.2,   22.5,   21.6,   21.3,   20.7,   20.1,   19.3,   19.0,   18.7,   18.7,   18.7,   18.5,   18.6,   19.1,   19.5,   20.0,   20.2,   21.3,   21.9,   21.7,   22.2,   22.5,   21.7,   21.9,   22.3,   23.2,   23.5,   23.2,   22.4,   21.9,   23.0,   23.2,   23.8
2005/10/04 22:30,  999.0,    1.6,    2.3,    2.5,    2.3,    3.2,    4.5,    7.4,   10.9,   12.7,   12.9,   13.7,   14.0,   15.1,   16.1,   17.9,   19.8,   21.2,   19.4,   17.4,   17.2,   17.4,   17.6,   18.5,   19.3,   20.4,   21.4,   22.9,   23.2,   23.5,   23.2,   22.2,   21.4,   20.1,   19.5,   18.9,   18.6,   18.3,   18.2,   18.5,   18.7,   18.3,   18.4,   18.9,   19.1,   20.4,   21.1,   21.7,   21.9,   21.6,   21.8,   22.1,   21.8,   21.4,   21.7,   22.5,   22.6,   22.3,   22.3,   22.5,   23.3,   23.8,   24.6
2005/10/04 22:40,  999.0,    1.4,    1.9,    1.7,    2.3,    2.2,    3.7,    6.8,   10.5,   12.9,   12.8,   13.2,   13.9,   15.1,   15.9,   18.3,   19.7,   20.2,   18.7,   17.3,   17.4,   18.0,   18.6,   19.2,   20.3,   21.0,   21.4,   22.1,   23.5,   23.7,   22.9,   22.5,   20.7,   18.9,   18.2,   18.3,   19.0,   18.1,   17.7,   17.4,   17.6,   17.7,   17.6,   17.3,   17.5,   18.3,   19.1,   20.5,   21.2,   21.1,   21.3,   21.3,   21.1,   21.4,   21.9,   21.6,   21.7,   22.1,   22.3,   22.7,   23.1,   23.2,   23.3
2005/10/04 22:50,  999.0,    0.9,    2.3,    1.9,    1.4,    1.9,    3.7,    5.8,    9.5,   11.9,   12.8,   12.7,   13.5,   14.1,   16.4,   18.7,   18.7,   18.4,   18.0,   17.3,   16.9,   17.7,   18.0,   18.7,   20.0,   21.2,   21.8,   22.6,   23.3,   23.6,   22.8,   21.6,   20.7,   19.3,   17.7,   17.9,   18.5,   17.6,   17.3,   17.0,   17.2,   17.4,   17.5,   17.3,   17.6,   17.9,   18.4,   19.6,   21.2,   20.6,   20.9,   20.3,   20.0,   20.2,   20.4,   20.8,   21.7,   21.8,   22.3,   22.4,   22.4,   22.7,   23.1
2005/10/04 23:00,  999.0,    1.1,    1.6,    1.3,    1.2,    1.6,    2.7,    4.8,    8.6,   11.9,   13.2,   12.8,   13.3,   13.8,   16.5,   17.9,   17.8,   18.3,   18.1,   18.0,   17.6,   18.0,   18.6,   19.1,   20.0,   20.8,   21.8,   22.7,   22.8,   23.3,   22.2,   21.1,   20.1,   18.5,   17.6,   18.0,   18.5,   18.1,   17.6,   17.2,   17.2,   17.4,   17.7,   17.8,   18.4,   18.3,   18.5,   19.9,   20.9,   20.6,   20.4,   20.4,   19.8,   19.8,   19.9,   20.6,   21.9,   22.4,   22.2,   23.3,   22.8,   22.8,   23.3
2005/10/04 23:10,  999.0,    0.7,    1.8,    1.5,    0.9,    1.7,    2.5,    4.8,    9.2,   12.2,   12.8,   12.4,   12.6,   13.3,   15.5,   16.6,   16.4,   16.9,   17.6,   18.5,   17.7,   18.1,   19.0,   19.9,   21.5,   22.2,   22.8,   22.6,   22.8,   23.4,   22.5,   20.9,   20.0,   19.1,   18.4,   18.2,   17.9,   17.8,   17.5,   17.4,   17.3,   17.6,   18.1,   18.0,   18.0,   18.2,   18.1,   18.6,   20.4,   20.8,   20.3,   20.5,   20.1,   20.0,   20.6,   20.3,   21.2,   22.5,   22.9,   24.1,  999.0,  999.0,  999.0
2005/10/04 23:20,  999.0,    0.6,    1.7,    1.3,    1.6,    1.9,    3.3,    4.9,    9.1,   12.0,   12.4,   12.5,   12.8,   13.3,   15.6,   16.4,   17.0,   17.9,   18.4,   18.4,   17.6,   18.7,   18.9,   19.5,   21.5,   22.4,   23.0,   22.8,   23.5,   22.6,   20.9,   19.6,   18.5,   18.7,   18.1,   17.9,   18.0,   18.0,   17.8,   17.4,   17.8,   17.9,   17.9,   17.9,   17.7,   17.7,   17.6,   18.1,   19.3,   20.1,   20.1,   20.1,   20.0,   20.5,   20.5,   20.5,   21.4,   22.3,   23.2,   22.9,   23.1,   23.0,   23.6
2005/10/04 23:30,  999.0,    0.6,    1.1,    0.7,    1.0,    1.6,    3.9,    6.1,    8.9,   11.4,   12.1,   11.8,   12.4,   12.9,   14.2,   16.0,   16.8,   17.8,   18.6,   17.8,   18.0,   19.4,   20.5,   22.1,   22.2,   21.9,   22.3,   22.1,   21.8,   21.2,   20.2,   18.6,   17.4,   17.0,   17.5,   18.0,   17.9,   17.7,   17.5,   17.2,   17.6,   17.8,   17.6,   17.1,   17.1,   17.1,   17.0,   17.4,   18.6,   20.0,   19.9,   20.2,   19.8,   19.8,   19.6,   20.4,   21.1,   21.7,   22.2,   22.6,   22.9,   23.3,   23.3
2005/10/04 23:40,  999.0,    0.4,    0.5,    0.4,   -0.1,    1.9,    3.8,    6.8,    9.3,   11.2,   11.6,   11.7,   12.1,   12.6,   14.2,   15.2,   16.0,   17.2,   18.2,   17.1,   17.8,   19.3,   21.5,   21.7,   22.0,   22.0,   21.7,   21.3,   21.0,   20.8,   19.2,   17.3,   16.6,   16.6,   17.6,   17.6,   17.6,   17.2,   17.1,   17.0,   17.1,   17.4,   16.5,   16.0,   16.1,   16.2,   16.6,   16.7,   18.5,   20.2,   19.4,   19.3,   20.1,   20.1,   20.8,   21.4,   21.7,   22.2,   22.5,   22.6,   22.7,   23.1,   23.1
2005/10/04 23:50,  999.0,    0.1,    0.3,   -0.1,    0.1,    2.8,    4.7,    7.0,    8.7,   11.6,   11.4,   11.7,   12.4,   12.8,   14.2,   14.0,   15.4,   16.1,   17.8,   17.6,   18.0,   19.1,   20.6,   21.8,   22.1,   21.7,   22.3,   21.5,   20.6,   19.2,   18.3,   17.2,   17.1,   17.3,   16.9,   16.4,   16.9,   16.3,   16.6,   17.4,   17.6,   17.6,   16.8,   16.0,   16.3,   16.8,   17.4,   17.8,   19.4,   20.8,   20.1,   19.8,   20.3,   20.7,   21.4,   21.3,   21.9,   22.4,   22.5,   22.6,   22.4,   22.3,   22.9
